                ,  0.671,  0.819,  0.966,  1.114,  1.262,  1.410,  1.558,  1.705,  1.853,  2.001,  2.149,  2.297,  2.445,  2.592,  2.740,  2.888,  3.036,  3.184,  3.331,  3.479,  3.627,  3.775,  3.923,  4.070,  4.218,  4.366,  4.514,  4.662,  4.809,  4.957,  5.105,  5.253,  5.401,  5.549,  5.696,  5.844,  5.992,  6.140,  6.288,  6.435,  6.583,  6.731,  6.879,  7.027,  7.174,  7.322,  7.470,  7.618,  7.766,  7.914,  8.061,  8.209,  8.357,  8.505,  8.653,  8.800,  8.948,  9.096,  9.244,  9.392,  9.539,  9.687,  9.835
2005/08/20 00:00,  999.0,    0.3,   -0.1,    0.8,    1.4,    0.3,    0.9,    0.7,    0.6,   -0.8,  999.0,    0.4,    2.0,    2.1,  999.0,  999.0,    0.9,  999.0,  999.0,    2.3,    2.4,    2.2,    3.3,  999.0,  999.0,  999.0,  999.0,  999.0,  999.0,  999.0,   -0.1,   -0.0,   -0.0,    0.1,    0.1,    0.2,  999.0,    0.0,    0.1,    0.1,    0.0,    0.2,    0.0,    0.1,    0.1,    0.2,   -0.0,    0.0,   -0.3,    0.4,  999.0,  999.0,  999.0,  999.0,  999.0,  999.0,  999.0,  999.0,  999.0,  999.0,  999.0,  999.0,  999.0
2005/08/20 00:10,  999.0,   -1.1,  999.0,  999.0,    0.8,    1.8,  999.0,    2.3,    0.6,    0.9,    0.6,    0.9,  999.0,  999.0,  999.0,  999.0,  999.0,  999.0,  999.0,  999.0,  999.0,  999.0,  999.0,  999.0,  999.0,  999.0,  999.0,  999.0,  999.0,  999.0,  999.0,  999.0,    0.0,    0.1,    0.0,   -0.0,    0.0,    0.1,   -0.0,   -0.0,    0.0,    0.0,   -0.0,    0.0,   -0.1,   -0.1,    0.1,    0.1,    0.0,    0.2,   -0.1,   -0.3,  999.0,  999.0,  999.0,  999.0,  999.0,  999.0,  999.0,  999.0,  999.0,  999.0,  999.0
2005/08/20 00:20,  999.0,    0.8,   -0.7,    0.2,    1.2,    1.6,    2.7,   -0.3,    0.3,   -0.2,    0.8,  999.0,  999.0,  999.0,  999.0,  999.0,  999.0,  999.0,  999.0,  999.0,  999.0,   -2.5,   -6.9,  -25.9,  -10.2,  -10.2,  -10.2,  -10.1,  999.0,  999.0,  999.0,  999.0,  999.0,  999.0,   -0.1,    6.9,    9.1,    6.8,    6.8,    9.1,    6.9,    9.1,    6.8,    9.2,   13.7,   18.3,  999.0,   13.9,   18.4,    0.2,   -0.1,   -0.4,   41.4,  999.0,  999.0,  999.0,  999.0,  999.0,  999.0,  999.0,  999.0,  999.0,  999.0
2005/08/20 00:30,  999.0,   -1.4,   -0.3,   -0.0,   -0.8,    2.4,    2.6,  999.0,   -0.3,  999.0,    0.2,  999.0,    0.8,    1.2,  999.0,  999.0,  999.0,  999.0,    2.7,    3.1,    9.5,   13.1,   23.0,   17.3,   17.3,  999.0,    0.0,   -6.6,   -0.0,    0.0,   -0.1,  999.0,   -0.1,  999.0,   13.8,   13.8,   27.5,  999.0,   27.5,   55.2,   55.1,   38.7,   55.2,   41.6,   55.3,   55.2,   34.6,   55.5,   55.3,   55.0,   55.3,  999.0,  999.0,   55.1,  999.0,  999.0,  999.0,  999.0,  999.0,  999.0,  999.0,  999.0,  999.0
2005/08/20 00:40,  999.0,   -0.8,  999.0,    0.7,    1.3,    1.4,  999.0,  999.0,  999.0,   -0.2,   -0.9,  999.0,    1.1,    1.6,    1.5,  999.0,  999.0,    2.3,    2.5,    3.2,    3.2,    3.0,    4.2,   -1.1,  999.0,  999.0,  999.0,  999.0,  999.0,  999.0,  999.0,  999.0,   -0.1,  999.0,    0.0,  999.0,   -0.2,  999.0,   34.4,   55.1,   55.3,   55.2,   55.1,   55.2,   46.1,   46.1,   41.2,   41.5,   55.4,   41.2,   48.1,   55.2,  999.0,  999.0,  999.0,  999.0,  999.0,  999.0,  999.0,  999.0,  999.0,  999.0,  999.0
2005/08/20 00:50,  999.0,   -0.6,    0.9,    1.4,    2.1,    1.9,    2.3,    1.8,    2.0,    1.1,    0.7,    0.7,    1.1,    2.1,    2.6,  999.0,  999.0,    1.9,    2.9,    3.0,    2.4,    3.6,    4.0,   12.4,  999.0,  999.0,  999.0,  999.0,  999.0,  999.0,  999.0,   46.6,  999.0,   55.1,   55.1,   55.2,   55.2,   50.1,   55.2,   46.2,   55.1,   55.3,   55.3,   55.2,   55.1,   55.4,   55.3,   55.4,   55.3,  999.0,  999.0,  999.0,  999.0,  999.0,  999.0,  999.0,  999.0,  999.0,  999.0,  999.0,  999.0,  999.0,  999.0
2005/08/20 01:00,  999.0,    0.5,    1.9,    1.9,    1.7,    1.9,    1.9,    2.2,    1.5,    0.1,    0.4,   -0.3,    0.4,  999.0,  999.0,  999.0,  999.0,  999.0,    1.9,    1.7,  999.0,    1.7,    3.6,  999.0,  999.0,   15.1,  999.0,  999.0,  999.0,  999.0,   27.4,  999.0,  999.0,   34.3,   41.3,   45.9,   41.4,   50.6,   48.2,   45.9,   46.0,   46.0,   41.5,   55.2,   46.1,   46.0,   41.4,   48.4,   36.8,  999.0,  999.0,   55.3,  999.0,  999.0,  999.0,  999.0,  999.0,  999.0,  999.0,  999.0,  999.0,  999.0,  999.0
2005/08/20 01:10,  999.0,   -0.4,    1.1,    1.2,    0.8,    1.5,    1.2,    1.3,    1.9,    0.3,    0.2,    0.8,    0.8,    0.3,  999.0,    1.5,    2.6,    2.0,    2.1,  999.0,  999.0,  999.0,  999.0,  999.0,  999.0,  999.0,  999.0,  999.0,  999.0,  999.0,  999.0,  999.0,   55.2,   55.1,   55.1,   55.0,   55.1,   55.1,   55.2,   55.2,   55.2,   55.3,   55.3,   55.2,   55.2,   55.4,   55.3,   55.4,   55.4,   55.4,   55.4,  999.0,   55.5,  999.0,  999.0,  999.0,  999.0,  999.0,  999.0,  999.0,  999.0,  999.0,  999.0
2005/08/20 01:20,  999.0,    0.5,   -0.6,    0.6,    1.7,   -1.3,    0.6,   -0.8,    1.2,  999.0,   -1.2,   -0.6,   -0.1,    0.5,  999.0,    1.9,    1.8,    1.3,    1.5,  999.0,  999.0,  999.0,  999.0,  999.0,  999.0,  999.0,  999.0,  999.0,  999.0,  999.0,  999.0,  999.0,   55.2,   55.1,   55.1,   55.1,   55.1,   55.1,   55.1,   55.2,   55.2,   55.2,   55.2,   55.2,   55.5,   55.0,   55.1,   55.1,  999.0,  999.0,   55.4,   55.5,  999.0,  999.0,  999.0,  999.0,  999.0,  999.0,  999.0,  999.0,  999.0,  999.0,  999.0
2005/08/20 01:30,  999.0,  999.0,    1.3,    0.9,    1.2,    1.9,    2.1,    1.7,    1.2,    0.1,  999.0,    1.0,    0.8,    0.7,  999.0,    1.8,    1.4,    1.9,  999.0,    2.7,    2.6,    4.1,    4.2,    5.5,  999.0,  999.0,  999.0,  999.0,  999.0,  999.0,  999.0,  999.0,  999.0,  999.0,   55.1,  999.0,   55.0,   55.1,   55.1,   55.2,   55.2,   55.2,   55.1,   55.3,   55.2,   55.4,   55.4,  999.0,  999.0,   55.2,   55.3,  999.0,  999.0,  999.0,  999.0,  999.0,  999.0,  999.0,  999.0,  999.0,  999.0,  999.0,  999.0
2005/08/20 01:40,  999.0,    0.9,    1.0,   -0.1,    1.0,    0.4,    1.4,  999.0,  999.0,  999.0,    1.7,    1.3,    0.7,    1.4,    1.3,    1.1,    2.7,    3.1,    3.3,    3.3,    3.2,    3.7,    4.6,  999.0,  999.0,  999.0,  999.0,  999.0,  999.0,  999.0,  999.0,  999.0,  999.0,  999.0,  999.0,   -0.1,   -0.0,   -0.0,   -0.0,   -0.0,   -0.0,    0.2,    0.0,    0.0,    0.1,    0.1,   -0.1,    0.0,    0.1,   -0.2,  999.0,  999.0,  999.0,  999.0,  999.0,  999.0,  999.0,  999.0,  999.0,  999.0,  999.0,  999.0,  999.0
2005/08/20 01:50,  999.0,    1.6,    1.7,    0.8,    1.8,    1.5,    0.5,  999.0,  999.0,    0.3,    0.6,    0.3,    0.5,    1.5,    1.2,  999.0,  999.0,    2.3,    2.7,    3.3,    3.5,    3.8,    3.9,    4.6,    5.3,  999.0,  999.0,  999.0,  999.0,  999.0,  999.0,  999.0,  999.0,  999.0,  999.0,  999.0,  999.0,  999.0,  999.0,  999.0,  999.0,  999.0,   -6.8,    0.1,   -0.1,  -13.8,  -13.6,  999.0,    0.3,  -13.7,    0.0,  999.0,  999.0,  999.0,  999.0,  999.0,  999.0,  999.0,  999.0,  999.0,  999.0,  999.0,  999.0
2005/08/20 02:00,  999.0,    0.8,    2.1,    1.8,    1.7,    2.7,    0.9,    2.2,    0.5,    1.9,    1.5,    1.1,    0.9,    1.6,    1.8,    1.6,  999.0,    2.1,    2.2,    3.2,    2.4,    3.5,    3.9,    4.0,    4.1,  999.0,  999.0,  999.0,  999.0,  999.0,  999.0,  999.0,  999.0,  999.0,  999.0,  999.0,  999.0,  999.0,  999.0,  999.0,  999.0,  999.0,  999.0,  999.0,  999.0,  -27.5,   -0.3,  999.0,  -13.9,  -27.6,   -0.1,  999.0,    0.4,  999.0,  999.0,  999.0,  999.0,  999.0,  999.0,  999.0,  999.0,  999.0,  999.0
2005/08/20 02:10,  999.0,   -0.3,    2.2,    1.0,    1.3,    1.5,    0.7,    1.3,   -0.3,    0.9,    1.7,    0.4,    1.6,  999.0,    2.5,    1.3,    1.8,    1.5,    2.2,    3.4,    3.0,  999.0,    4.5,  999.0,    3.0,  999.0,  999.0,  999.0,  999.0,  999.0,  999.0,  999.0,  999.0,  999.0,  999.0,  999.0,  999.0,  999.0,   41.4,   46.0,   55.1,   55.3,   55.3,   55.2,   55.1,   55.2,  999.0,   41.5,  999.0,   27.8,   27.7,  999.0,  999.0,  999.0,  999.0,  999.0,  999.0,  999.0,  999.0,  999.0,  999.0,  999.0,  999.0
2005/08/20 02:20,  999.0,    0.4,    1.0,    1.0,    2.6,    2.1,    1.9,    1.9,    0.3,  999.0,    0.7,    0.7,  999.0,  999.0,    1.9,  999.0,    1.5,    1.5,    2.4,    3.2,    3.2,    4.3,    4.4,    3.6,  999.0,  999.0,  999.0,  999.0,  999.0,  999.0,  999.0,  999.0,  999.0,  999.0,  999.0,  999.0,  999.0,  999.0,  999.0,  999.0,   55.2,   55.3,  999.0,   55.3,  999.0,   55.3,  999.0,  -27.8,  999.0,  999.0,  -27.4,  999.0,  999.0,  999.0,  999.0,  999.0,  999.0,  999.0,  999.0,  999.0,  999.0,  999.0,  999.0
2005/08/20 02:30,  999.0,    0.4,    1.1,  999.0,    2.3,    1.6,    1.4,    1.8,  999.0,  999.0,  999.0,    0.7,    2.1,    1.5,    2.2,  999.0,    2.0,    1.9,    2.5,    3.0,    3.3,    2.7,  999.0,  999.0,  999.0,  999.0,  999.0,  999.0,  999.0,  999.0,  999.0,  999.0,  999.0,  999.0,  -55.2,  -55.2,  -55.1,  -55.1,  -55.2,  -55.2,  -55.2,  -55.2,  -55.2,  -55.3,  -55.4,  -55.3,  -55.4,  -55.6,  -55.6,  -55.5,  -55.2,  999.0,  999.0,  999.0,  999.0,  999.0,  999.0,  999.0,  999.0,  999.0,  999.0,  999.0,  999.0
2005/08/20 02:40,  999.0,   -0.3,    1.2,    1.2,    2.1,    1.8,    1.3,    1.6,    0.5,    1.2,   -0.4,    0.4,  999.0,    1.7,    1.9,  999.0,    2.3,    2.4,  999.0,  999.0,  999.0,  999.0,  999.0,  999.0,  999.0,  999.0,  999.0,  999.0,  999.0,  999.0,  999.0,  999.0,    0.1,  -18.4,   -0.1,  -27.6,  -13.8,  -13.8,  -34.5,  -34.5,  -27.5,  -27.5,  -34.5,  -27.7,  -27.6,  -22.2,  -13.9,  -34.6,  -20.6,   -9.3,  -18.4,  999.0,  -18.7,  999.0,  999.0,  999.0,  999.0,  999.0,  999.0,  999.0,  999.0,  999.0,  999.0
2005/08/20 02:50,  999.0,    0.3,   -0.0,    1.2,    2.3,    1.0,    1.4,    1.2,    1.0,   -0.6,    0.6,    0.9,  999.0,    1.7,    2.9,  999.0,  999.0,  999.0,  999.0,  999.0,  999.0,  999.0,  999.0,  999.0,  999.0,  -12.9,  999.0,  999.0,  999.0,  999.0,  999.0,  999.0,  999.0,  999.0,  999.0,  999.0,  999.0,  999.0,  -41.4,  -46.0,  -46.0,  -46.0,  -41.4,  -46.2,  -55.2,  -48.4,  -48.5,  -36.9,  -55.4,  -55.4,  -55.1,  999.0,  999.0,  -55.3,  999.0,  999.0,  999.0,  999.0,  999.0,  999.0,  999.0,  999.0,  999.0
2005/08/20 03:00,  999.0,    1.5,    0.6,    1.3,    2.1,    1.6,    1.8,  999.0,    1.0,    1.1,    1.3,    1.2,  999.0,  999.0,  999.0,  999.0,  999.0,  999.0,  999.0,  999.0,  999.0,  999.0,  -25.4,  -25.5,  -25.3,  -26.2,  999.0,  999.0,  -27.1,  -27.3,  -18.2,  -18.5,  -18.4,  -18.4,    0.0,  -14.5,  -27.5,  999.0,  999.0,  -13.9,  -13.8,   -9.2,  -27.8,  -27.6,  -20.7,  -27.8,  -27.9,  -13.9,   -0.1,  999.0,  -55.4,  999.0,  999.0,  999.0,  999.0,  999.0,  999.0,  999.0,  999.0,  999.0,  999.0,  999.0,  999.0
2005/08/20 03:10,  999.0,    2.9,    1.0,   -0.2,   -1.7,   -0.3,   -0.6,   -0.3,    0.7,    0.6,    0.4,    1.5,    2.4,    3.2,  999.0,  999.0,    3.6,    3.5,    3.9,    3.8,    4.4,    4.2,    7.2,   11.3,    4.9,  999.0,  999.0,  999.0,  999.0,  999.0,  999.0,  999.0,  999.0,  999.0,  999.0,  999.0,  999.0,  999.0,  999.0,  999.0,  999.0,  999.0,  999.0,   55.2,  999.0,   55.2,   55.3,  999.0,   55.4,   41.1,   27.5,  999.0,  999.0,  999.0,  999.0,  999.0,  999.0,  999.0,  999.0,  999.0,  999.0,  999.0,  999.0
2005/08/20 03:20,  999.0,    0.6,    1.3,    0.8,    0.9,    1.2,    1.0,  999.0,    0.5,    0.8,    0.4,    2.1,  999.0,    3.6,    3.5,  999.0,  999.0,  999.0,  999.0,  999.0,  999.0,  999.0,  999.0,  999.0,  999.0,  999.0,  999.0,  999.0,  999.0,  999.0,  999.0,  999.0,  999.0,  999.0,  999.0,    0.0,   -0.0,   -0.0,    0.0,   -0.0,   -0.0,    0.0,    0.0,   -0.1,   -0.1,   -0.0,   -0.1,    0.1,    0.5,   -0.1,    0.1,   -0.2,  999.0,  999.0,  999.0,  999.0,  999.0,  999.0,  999.0,  999.0,  999.0,  999.0,  999.0
2005/08/20 03:30,  999.0,   -0.2,    1.2,   -0.1,    0.5,   -0.6,    1.3,    1.1,    0.7,    0.9,    0.8,    1.8,    3.1,    3.4,    2.6,    2.5,    2.9,    3.4,    3.7,    3.7,  999.0,  999.0,  999.0,  999.0,  999.0,  999.0,  999.0,  999.0,  999.0,  999.0,  999.0,  999.0,  999.0,  999.0,  999.0,    0.1,   -0.1,   -0.0,   -0.0,   -0.1,    0.0,   -0.1,   -0.1,    0.0,   -0.0,    0.1,   -0.0,    0.1,   -0.1,   -0.0,    0.2,    0.1,    0.3,  999.0,  999.0,  999.0,  999.0,  999.0,  999.0,  999.0,  999.0,  999.0,  999.0
2005/08/20 03:40,  999.0,    0.1,    1.6,    1.0,    0.7,    0.0,    0.5,    0.5,    2.3,  999.0,    0.7,    1.9,    3.1,    4.2,    3.5,    3.3,    3.9,    4.3,    4.1,    4.2,    4.1,    4.9,    5.8,  999.0,    5.2,  999.0,  999.0,  999.0,  999.0,  999.0,  999.0,  999.0,  999.0,  999.0,  999.0,  999.0,  999.0,   -0.0,   -0.0,   -0.1,    0.0,   -0.0,  999.0,    0.1,    0.2,    0.0,   -0.2,   -0.2,   -0.2,   -0.2,    0.2,    0.1,    0.2,   -0.1,  999.0,  999.0,  999.0,  999.0,  999.0,  999.0,  999.0,  999.0,  999.0
2005/08/20 03:50,  999.0,    1.0,    0.9,    1.6,    1.0,    0.8,    1.2,    1.8,    1.3,    1.0,    1.0,    1.9,    3.2,    3.6,    3.9,    3.7,    3.7,    3.7,    3.7,    3.5,    3.5,    4.3,    4.9,    5.2,    4.9,    5.3,  999.0,  999.0,  999.0,  999.0,  999.0,  999.0,  999.0,  999.0,  999.0,  999.0,  999.0,    0.0,    0.0,    0.1,   -0.0,    0.1,    0.0,    0.0,   -0.1,   -0.2,    0.1,    0.1,   -0.1,    0.1,  999.0,   -0.3,   -0.2,    0.2,  999.0,  999.0,  999.0,  999.0,  999.0,  999.0,  999.0,  999.0,  999.0
2005/08/20 04:00,  999.0,  999.0,    0.2,    0.8,    1.9,    1.0,    2.3,    0.5,    1.6,    1.6,    1.8,    1.9,    3.3,    3.7,    4.0,    3.5,    3.8,    3.9,    3.8,    3.3,    3.6,    4.5,    5.8,    6.2,    5.7,    6.2,  999.0,  999.0,  999.0,  999.0,  999.0,  999.0,  999.0,  999.0,  999.0,  999.0,  999.0,  999.0,  999.0,  999.0,   -0.0,    0.1,    0.0,    0.0,    0.1,   -0.0,    0.0,    0.0,    0.0,    0.0,   -0.1,   -0.2,  999.0,  999.0,  999.0,  999.0,  999.0,  999.0,  999.0,  999.0,  999.0,  999.0,  999.0
2005/08/20 04:10,  999.0,   -1.0,   -0.8,    0.3,  999.0,    1.2,    1.3,    1.6,    1.5,    0.9,    1.3,    1.8,    3.4,    3.2,    3.3,    3.6,    3.7,    4.0,    3.9,    3.3,    3.5,    4.0,    4.9,    5.0,    4.8,  999.0,  999.0,  999.0,  999.0,  999.0,  999.0,  999.0,  999.0,  999.0,   41.2,   36.7,  999.0,   13.6,    9.2,   19.3,   13.7,   20.6,   27.5,   20.8,   41.5,   13.6,   41.4,   27.6,   27.6,  999.0,  999.0,   27.7,  999.0,  999.0,  999.0,  999.0,  999.0,  999.0,  999.0,  999.0,  999.0,  999.0,  999.0
2005/08/20 04:20,  999.0,    0.4,  999.0,    1.7,   -0.3,    1.2,    1.4,    1.1,  999.0,    0.6,    0.2,    1.4,    3.1,    3.1,    3.0,    3.3,    3.0,    3.3,    3.5,    3.9,    3.7,    4.1,    4.8,    4.9,    4.6,    5.9,  999.0,  999.0,  999.0,  999.0,  999.0,  999.0,  999.0,  999.0,  999.0,   27.6,   41.4,  999.0,  999.0,   27.6,    9.3,   18.4,   20.7,   20.7,   -0.0,   13.7,   27.6,   41.1,   18.5,   13.7,  999.0,   28.0,  999.0,  999.0,  999.0,  999.0,  999.0,  999.0,  999.0,  999.0,  999.0,  999.0,  999.0
2005/08/20 04:30,  999.0,   -0.9,    1.0,    0.1,    1.2,    0.1,    0.5,    0.8,    0.5,    0.7,    1.0,    1.8,    3.0,    3.0,    3.5,    3.8,    3.5,    4.1,    4.1,    3.8,    3.7,    3.9,    4.4,    4.8,    5.0,    5.1,  999.0,  999.0,  999.0,  999.0,  999.0,  999.0,  999.0,  999.0,  999.0,  999.0,  999.0,  999.0,  999.0,  999.0,   -0.0,    0.1,   -6.9,   -0.1,   -5.4,    0.1,   -6.8,   -7.1,  -27.9,   -0.0,    0.3,   -9.1,  999.0,    0.2,  999.0,  999.0,  999.0,  999.0,  999.0,  999.0,  999.0,  999.0,  999.0
2005/08/20 04:40,  999.0,   -0.1,    1.1,    0.1,    1.0,    0.3,    0.8,    0.5,    0.9,    0.8,    1.0,    1.9,    2.9,    3.2,    3.3,    2.3,    3.2,    4.3,    3.7,    3.6,    4.3,    4.6,    5.2,    5.2,  999.0,  999.0,  999.0,  999.0,  999.0,  999.0,  999.0,  999.0,  999.0,  999.0,  999.0,  999.0,  999.0,  999.0,  999.0,    0.0,   18.4,   18.4,    6.9,    0.1,    0.0,    9.1,    9.1,   -0.1,  999.0,  999.0,    9.2,  999.0,   -0.4,  999.0,  999.0,  999.0,  999.0,  999.0,  999.0,  999.0,  999.0,  999.0,  999.0
2005/08/20 04:50,  999.0,   -0.8,    1.1,    1.6,    1.2,    1.0,    1.6,    0.7,    0.1,    0.7,    1.2,    1.9,    2.6,    3.0,    2.3,    2.6,    3.4,    3.3,    3.3,    3.1,    3.6,    4.6,    4.8,    4.9,  999.0,  999.0,  999.0,  999.0,  999.0,  999.0,  999.0,  999.0,  999.0,  999.0,  999.0,  999.0,  999.0,  999.0,  999.0,  999.0,   27.5,    9.2,    9.2,  -18.5,   -0.2,   -6.8,  -13.7,  -13.9,  -18.3,  -27.7,  -27.4,  999.0,  999.0,  999.0,  999.0,  999.0,  999.0,  999.0,  999.0,  999.0,  999.0,  999.0,  999.0
2005/08/20 05:00,  999.0,  999.0,    0.8,    1.5,    0.4,    1.8,    2.2,    1.2,    0.6,    0.9,    1.2,    1.8,    2.7,    3.3,    3.0,    3.0,    3.0,    3.4,    3.2,    3.1,    3.6,    3.9,  999.0,  999.0,  999.0,  999.0,  999.0,  999.0,  999.0,  999.0,   -0.0,   -0.1,   -0.0,   -0.0,   -0.0,    0.0,   -0.1,   13.7,   13.8,    9.2,   13.8,   18.4,   13.8,   13.8,   -0.2,  -27.6,  -41.7,  -27.8,  999.0,  -13.9,  -13.8,  999.0,   -0.1,   27.8,  999.0,  999.0,  999.0,  999.0,  999.0,  999.0,  999.0,  999.0,  999.0
2005/08/20 05:10,  999.0,   -3.0,   -1.1,    0.3,   -0.5,    0.7,    1.9,    1.5,    1.4,    1.2,    1.3,    1.7,    3.5,    4.1,    3.5,    3.5,  999.0,    2.8,    2.7,    3.7,    4.1,    4.3,    4.7,  999.0,  999.0,  999.0,  999.0,  999.0,  999.0,  999.0,  999.0,  999.0,  999.0,  999.0,  999.0,   55.2,   55.2,   55.2,   55.3,   55.3,   55.3,   55.2,   55.2,   55.3,   55.5,   55.5,   55.3,   55.2,   55.2,   55.4,   55.2,  999.0,   55.0,  999.0,  999.0,  999.0,  999.0,  999.0,  999.0,  999.0,  999.0,  999.0,  999.0
2005/08/20 05:20,  999.0,   -0.7,   -1.3,    0.7,    0.1,    0.8,    1.9,    1.8,    1.1,    1.3,    1.2,    1.7,    2.7,    3.4,    3.7,    3.6,    3.3,    2.4,    2.5,    3.4,  999.0,  999.0,  999.0,  999.0,  999.0,  999.0,  999.0,  999.0,  999.0,  999.0,  999.0,  999.0,  999.0,  999.0,  999.0,   55.1,   55.1,   55.1,   55.2,   55.0,   55.1,   55.1,   55.0,   55.2,   55.3,   55.3,   55.3,   55.2,   55.4,   55.3,   55.6,  999.0,   55.6,   55.3,  999.0,  999.0,  999.0,  999.0,  999.0,  999.0,  999.0,  999.0,  999.0
2005/08/20 05:30,  999.0,   -1.2,   -1.0,    0.2,    0.6,   -1.6,    0.2,    1.5,    0.5,    1.3,    1.2,    2.3,    3.3,    4.4,    3.7,    3.5,    3.2,    3.1,    3.5,  999.0,  999.0,  999.0,  999.0,  999.0,  999.0,  999.0,  999.0,  999.0,  999.0,  999.0,  999.0,  999.0,  999.0,  999.0,  999.0,   48.4,   48.4,   48.2,   48.4,   36.8,   48.3,   46.1,   55.3,   36.9,   36.9,   48.3,   27.8,   41.6,   41.6,   55.1,   55.3,  999.0,   27.9,   41.5,  999.0,  999.0,  999.0,  999.0,  999.0,  999.0,  999.0,  999.0,  999.0
2005/08/20 05:40,  999.0,   -0.1,   -0.9,    0.8,   -1.5,   -0.4,    1.2,    1.3,    1.2,    1.4,    1.3,    2.2,    3.1,    3.6,    3.3,    3.3,    3.5,    4.1,    4.4,  999.0,    4.6,    4.7,  999.0,  999.0,  999.0,  999.0,  999.0,  999.0,  999.0,  999.0,  999.0,  999.0,  999.0,  999.0,  999.0,   27.5,   27.5,   27.5,   18.4,   36.9,   33.2,   27.6,   13.8,   27.7,   27.5,   20.8,   14.1,   27.6,   18.4,    0.2,    0.3,  999.0,  999.0,   -1.2,  999.0,  999.0,  999.0,  999.0,  999.0,  999.0,  999.0,  999.0,  999.0
2005/08/20 05:50,  999.0,   -1.3,   -0.5,    0.6,   -0.8,   -1.3,    1.4,    3.0,    1.9,    1.3,    1.6,    1.8,    3.0,    2.9,    2.3,    3.2,    2.5,    3.2,    4.1,    4.3,    4.4,  999.0,  999.0,  999.0,  999.0,  999.0,  999.0,  999.0,  999.0,  999.0,  999.0,  999.0,  999.0,  999.0,  999.0,   55.1,   55.1,   55.1,   55.2,   55.1,   46.0,   41.4,   27.6,   41.4,   37.0,   36.8,   41.4,   36.9,   27.8,   41.5,  999.0,  999.0,   27.2,  999.0,  999.0,  999.0,  999.0,  999.0,  999.0,  999.0,  999.0,  999.0,  999.0
2005/08/20 06:00,  999.0,   -0.6,    0.3,   -0.1,   -1.1,   -0.6,    1.5,    2.6,    3.0,    1.8,    1.7,    1.7,    2.4,    2.3,    2.1,    2.2,    2.0,    2.2,    3.3,    3.5,    3.9,    3.8,  999.0,  999.0,  999.0,  999.0,  999.0,  999.0,  999.0,  999.0,  999.0,  999.0,  999.0,  999.0,   27.6,   11.0,   11.0,   11.1,   11.1,   11.1,   11.1,   11.0,   11.0,   11.1,   13.7,   11.0,   11.2,   11.1,   18.5,   -0.0,   18.4,   18.7,    0.1,    0.2,  999.0,  999.0,  999.0,  999.0,  999.0,  999.0,  999.0,  999.0,  999.0
2005/08/20 06:10,  999.0,   -0.4,   -0.9,    0.4,   -1.0,   -0.7,    0.6,    2.6,    2.6,    2.4,    1.5,    1.5,    2.7,    2.5,    3.0,    2.1,    2.3,    3.4,    3.8,    4.1,    3.6,    3.7,    4.0,    4.5,  999.0,  999.0,  999.0,  999.0,  999.0,  999.0,  999.0,  999.0,  999.0,  999.0,  999.0,   -0.0,  999.0,   -0.0,    0.0,    0.1,   -0.1,   -0.0,    0.0,   -0.0,    0.0,    0.1,    0.0,   -0.1,    0.1,    0.1,   -0.1,    0.3,    0.2,  999.0,  999.0,  999.0,  999.0,  999.0,  999.0,    0.0,  999.0,  999.0,  999.0
2005/08/20 06:20,  999.0,   -2.0,   -1.0,   -0.8,   -2.1,   -1.1,    0.4,    1.8,    2.3,    2.5,    1.5,    2.2,    2.7,    2.4,    2.5,    2.3,    2.6,    3.7,    4.5,    4.7,    4.2,    2.6,    4.0,  999.0,  999.0,  999.0,  999.0,  999.0,  999.0,  999.0,  999.0,  999.0,  999.0,  999.0,  999.0,  999.0,    0.0,    0.0,   -0.0,    0.1,   -0.0,   -0.0,   -0.0,    0.0,    0.0,    0.2,    0.2,   -0.2,   -0.0,    0.1,   -0.2,  999.0,    0.1,   -0.0,  999.0,  999.0,  999.0,  999.0,  999.0,  999.0,  999.0,  999.0,  999.0
2005/08/20 06:30,  999.0,   -2.2,   -0.8,   -0.0,   -1.2,   -1.4,    0.3,    2.1,    1.7,    2.6,    2.0,    2.2,    3.6,    3.0,    2.7,    2.8,    2.9,    3.4,    3.7,    3.6,    3.4,    3.6,  999.0,  999.0,  999.0,  999.0,  999.0,  999.0,  999.0,  999.0,  999.0,  999.0,  999.0,    0.0,   -0.1,    0.1,    0.0,    0.0,   -0.0,   -0.0,    0.0,    0.0,   -0.1,    0.0,   -0.1,   -0.1,   -0.0,    0.2,   -0.1,   -0.1,  999.0,   -0.1,    0.6,    0.3,  999.0,  999.0,  999.0,  999.0,  999.0,  999.0,  999.0,  999.0,  999.0
2005/08/20 06:40,  999.0,   -2.7,   -0.8,   -1.5,   -1.5,   -0.6,    0.4,    2.5,    2.7,    2.4,    2.0,    1.8,    2.6,    3.2,    2.9,    2.2,    2.8,    2.7,    3.1,    2.8,    2.8,  999.0,  999.0,  999.0,  999.0,  999.0,  999.0,  999.0,  999.0,  999.0,  999.0,  999.0,  999.0,  999.0,  999.0,  999.0,  999.0,  999.0,   -0.1,   -0.0,   -0.0,    0.0,   -0.0,   -0.0,    0.0,   -0.1,   -0.1,   -0.1,   -0.1,   -0.0,    0.4,  999.0,    0.0,  999.0,  999.0,  999.0,  999.0,  999.0,  999.0,  999.0,  999.0,  999.0,  999.0
2005/08/20 06:50,  999.0,   -3.6,   -1.2,   -1.4,   -2.4,   -0.4,    0.9,    2.6,    2.7,    2.5,    2.3,    3.1,    3.5,    3.7,    3.5,    3.1,  999.0,  999.0,    2.1,  999.0,  999.0,  999.0,  999.0,  999.0,  999.0,  999.0,  999.0,  999.0,  999.0,  999.0,  999.0,  999.0,  999.0,  999.0,  999.0,    0.1,    0.0,    0.0,   -0.0,    0.1,    0.1,    0.0,    0.0,   -0.0,   -0.1,    0.0,   -0.1,    0.1,   -0.2,   -0.2,    0.0,  999.0,  999.0,  999.0,  999.0,  999.0,  999.0,  999.0,  999.0,  999.0,  999.0,  999.0,  999.0
2005/08/20 07:00,  999.0,   -3.5,   -0.5,   -0.7,   -1.5,   -0.4,    0.9,    2.8,    3.1,    2.7,    2.6,    2.8,    3.4,    2.7,    2.6,    2.4,  999.0,    2.9,  999.0,  999.0,  999.0,  999.0,  999.0,  999.0,  999.0,  999.0,  999.0,  999.0,  999.0,  999.0,  999.0,  999.0,  999.0,  999.0,  999.0,   -0.0,    0.1,   -0.1,   -0.0,    0.0,    0.0,   -0.1,    0.1,   -0.1,   -0.1,    0.0,    0.1,    0.1,   -0.1,    0.2,    0.1,   -0.1,  999.0,   -0.3,  999.0,  999.0,  999.0,  999.0,  999.0,  999.0,  999.0,  999.0,  999.0
2005/08/20 07:10,  999.0,   -3.8,   -0.5,   -0.1,   -0.7,   -0.2,    1.2,    2.7,    2.0,    2.4,    2.6,    2.7,    2.2,    1.8,    2.0,    1.6,    1.8,  999.0,  999.0,  999.0,  999.0,  999.0,  999.0,  999.0,  999.0,  999.0,  999.0,  999.0,  999.0,  999.0,  999.0,  999.0,  999.0,  999.0,   27.5,   13.8,   13.8,   13.8,   13.8,   13.8,   13.7,   13.8,   13.8,   13.7,   13.9,   14.0,   -0.2,   13.7,   14.0,   14.0,   28.1,    0.1,  999.0,  999.0,  999.0,  999.0,  999.0,  999.0,  999.0,  999.0,  999.0,  999.0,  999.0
2005/08/20 07:20,  999.0,   -1.5,   -0.5,   -0.0,   -0.7,   -0.1,    1.5,    2.5,    2.5,    3.2,    3.7,    3.2,    3.2,    3.3,    3.2,    3.1,    3.2,    3.3,    3.4,    4.0,    4.4,  999.0,  999.0,    5.4,    5.1,    5.3,  999.0,  999.0,  999.0,  999.0,  999.0,  999.0,  999.0,  999.0,   55.3,   55.2,   55.3,   55.2,   55.2,   55.3,   55.2,   55.2,   55.3,   55.3,  999.0,   48.5,   46.3,   46.2,  999.0,   46.1,   41.9,  999.0,   41.6,  999.0,  999.0,  999.0,  999.0,  999.0,  999.0,  999.0,  999.0,  999.0,  999.0
2005/08/20 07:30,  999.0,   -3.0,   -1.2,   -0.1,   -1.2,    0.0,    0.9,    2.4,    3.2,    3.2,    2.9,    2.4,    2.7,    3.1,    2.9,    2.6,    2.8,    3.0,  999.0,    4.5,    4.4,  999.0,  999.0,    5.2,  999.0,  999.0,  999.0,  999.0,  999.0,  999.0,  999.0,  999.0,  999.0,  999.0,  999.0,    0.0,    0.0,   33.1,   33.1,   33.1,   33.1,   33.1,   33.2,   33.3,   33.2,   33.3,   27.7,   33.3,   41.9,   18.7,   36.6,   28.0,  999.0,  999.0,   19.1,  999.0,  999.0,  999.0,  999.0,  999.0,  999.0,  999.0,  999.0
2005/08/20 07:40,  999.0,   -3.4,   -0.4,   -0.2,   -0.8,  999.0,    0.0,    1.4,    2.5,    2.6,    2.1,    2.1,    2.7,    3.0,    3.1,  999.0,    3.3,    2.7,    2.5,    2.2,    4.0,    4.7,   -0.4,    1.4,   -0.2,   -0.2,   -9.9,  999.0,  999.0,  999.0,  999.0,  999.0,  999.0,  999.0,  999.0,  999.0,   36.6,   41.3,   34.5,   34.4,   41.4,   36.8,   45.8,   45.9,   55.1,   41.4,  999.0,   36.7,  999.0,   54.8,  999.0,  999.0,  999.0,  999.0,  999.0,  999.0,  999.0,  999.0,  999.0,  999.0,  999.0,  999.0,  999.0
2005/08/20 07:50,  999.0,   -2.2,   -0.8,   -0.6,   -0.0,   -0.3,    0.3,    1.6,    2.5,    2.5,    2.2,    2.1,    2.7,    3.0,    3.4,    3.3,    3.3,    2.9,    3.2,    3.4,    3.8,    4.3,    4.7,    4.2,    4.1,    4.4,    4.8,  999.0,  999.0,  999.0,  999.0,  999.0,  999.0,  999.0,  999.0,   55.3,   55.2,   55.2,   55.2,   55.2,   55.2,   55.3,   55.3,   55.3,   55.4,   55.4,  999.0,   55.4,   55.4,  999.0,   55.1,  999.0,  999.0,  999.0,  999.0,  999.0,  999.0,  999.0,  999.0,  999.0,  999.0,  999.0,  999.0
2005/08/20 08:00,  999.0,   -1.7,   -1.1,   -0.2,   -0.4,   -0.3,    0.7,    1.0,    0.7,    1.9,    1.7,    1.2,    1.4,    1.8,    2.9,    2.6,    2.7,    2.5,    3.0,    3.0,    3.7,    3.7,    4.0,  999.0,  999.0,  999.0,  999.0,  999.0,  999.0,  999.0,  999.0,  999.0,  999.0,  999.0,  999.0,  999.0,   55.0,   55.0,   55.2,   55.0,   55.0,   55.1,   55.0,   55.1,   55.3,   55.1,   55.2,   55.2,   55.1,   55.2,   55.4,  999.0,  999.0,  999.0,  999.0,  999.0,  999.0,  999.0,  999.0,  999.0,  999.0,  999.0,  999.0
2005/08/20 08:10,  999.0,   -1.7,   -0.8,   -0.1,    0.0,    0.2,    0.8,    1.6,    0.6,    2.4,    3.0,    2.8,    2.8,    2.8,    2.9,    3.1,    3.0,    3.4,    3.6,    3.8,    4.0,    4.0,    4.5,    4.5,    5.1,  999.0,  999.0,  999.0,  999.0,  999.0,  999.0,  999.0,  999.0,  999.0,  999.0,   55.0,   55.1,   55.2,   55.0,   55.1,   55.2,   54.9,   55.3,   55.0,  999.0,  999.0,  999.0,  999.0,   55.1,  999.0,  999.0,  999.0,  999.0,  999.0,  999.0,  999.0,  999.0,  999.0,  999.0,  999.0,  999.0,  999.0,  999.0
2005/08/20 08:20,  999.0,   -1.1,   -0.3,   -0.2,    0.1,   -0.2,   -0.2,    0.4,    1.2,    2.3,    3.3,    3.3,    2.5,    2.3,    2.3,    2.0,    1.9,    1.9,    2.0,    1.9,    2.0,    3.2,    3.7,    4.9,    3.9,    3.9,  999.0,  999.0,  999.0,  999.0,  999.0,  999.0,  999.0,  999.0,  999.0,  999.0,  999.0,  999.0,  999.0,  999.0,  999.0,  999.0,  999.0,  999.0,  999.0,  999.0,  999.0,  999.0,  999.0,  999.0,  999.0,  999.0,  999.0,  999.0,  999.0,  999.0,  999.0,  999.0,  999.0,  999.0,  999.0,  999.0,  999.0
2005/08/20 08:30,  999.0,   -1.5,   -0.2,   -0.2,    0.0,    0.3,    0.0,    0.5,    0.6,    1.3,    1.9,    2.6,    2.5,    1.8,    1.9,    2.4,    2.4,    2.9,    3.0,    3.1,    3.2,    4.3,    4.8,    4.7,    4.0,  999.0,  999.0,  999.0,  999.0,  999.0,  999.0,  999.0,  999.0,  999.0,  999.0,  999.0,  999.0,  999.0,  999.0,  999.0,  999.0,  999.0,   29.8,  999.0,  999.0,  999.0,  999.0,  999.0,  999.0,  999.0,  999.0,  999.0,  999.0,  999.0,  999.0,  999.0,  999.0,  999.0,  999.0,  999.0,  999.0,  999.0,  999.0
2005/08/20 08:40,  999.0,   -0.9,   -0.3,   -0.0,    0.1,   -0.1,    0.1,    0.7,    0.7,    2.2,    2.9,    3.1,    2.9,    2.0,    2.2,    2.8,    2.3,    2.7,    3.3,    3.6,    3.9,    4.9,    5.1,    5.1,    5.4,    5.0,  999.0,  999.0,  999.0,  999.0,  999.0,  999.0,  999.0,  999.0,  999.0,  999.0,  999.0,  999.0,  999.0,  999.0,  999.0,  999.0,  999.0,  999.0,  999.0,  999.0,  999.0,  999.0,  999.0,  999.0,  999.0,  999.0,  999.0,  999.0,  999.0,  999.0,  999.0,  999.0,  999.0,  999.0,  999.0,  999.0,  999.0
2005/08/20 08:50,  999.0,   -0.7,    0.8,   -0.1,   -0.4,    0.1,    0.2,    0.9,    1.5,    2.1,    2.8,    3.0,    2.9,    2.7,    1.9,    2.2,    2.8,    2.9,    3.3,    3.5,    4.3,    5.0,    5.0,    5.2,    5.1,    5.2,    4.6,  999.0,    3.0,  999.0,  999.0,  999.0,  999.0,  999.0,  999.0,  999.0,  999.0,  999.0,  999.0,  999.0,  999.0,  999.0,  999.0,  999.0,  999.0,    3.7,  999.0,  999.0,  999.0,  999.0,  999.0,  999.0,  999.0,  999.0,  999.0,  999.0,  999.0,  999.0,  999.0,  999.0,  999.0,  999.0,  999.0
2005/08/20 09:00,  999.0,   -1.2,   -1.5,   -0.1,    0.1,    0.2,    0.5,    0.9,    1.3,    2.3,    3.3,    2.9,    2.5,    1.7,    1.1,    1.7,    1.9,    2.8,    3.0,    3.1,    3.9,    3.7,    4.4,    5.3,    5.5,    5.5,    4.8,    5.1,  999.0,  999.0,  999.0,  999.0,  999.0,  999.0,  999.0,  999.0,  999.0,  999.0,  999.0,  999.0,  999.0,  999.0,  999.0,  999.0,  999.0,    5.2,  999.0,  999.0,  999.0,  999.0,  999.0,  999.0,  999.0,  999.0,  999.0,  999.0,  999.0,  999.0,  999.0,  999.0,  999.0,  999.0,  999.0
2005/08/20 09:10,  999.0,   -1.1,   -0.8,   -0.4,    0.1,   -0.1,    0.9,    1.1,    1.4,    2.7,    3.3,    3.5,    3.0,    2.5,    1.4,    1.3,    1.8,    2.3,    3.4,    3.5,    3.3,    3.0,    3.7,  999.0,  999.0,  999.0,  999.0,  999.0,  999.0,  999.0,   21.9,   15.7,   22.6,   23.5,  999.0,   21.4,   29.4,  999.0,  999.0,  999.0,  999.0,  999.0,  999.0,  999.0,  999.0,  999.0,  999.0,  999.0,  999.0,  999.0,  999.0,  999.0,  999.0,  999.0,  999.0,  999.0,  999.0,  999.0,  999.0,  999.0,  999.0,  999.0,  999.0
2005/08/20 09:20,  999.0,    0.6,    0.3,    0.7,    0.6,    0.5,    0.9,    0.8,    2.3,    3.5,    3.2,    2.7,    3.1,    3.1,    2.2,    2.0,    2.3,    3.6,    4.6,    4.5,    4.2,    3.6,    4.1,    4.8,  999.0,  999.0,  999.0,  999.0,  999.0,  999.0,  999.0,   30.0,  999.0,   29.1,   28.5,   28.2,  999.0,  999.0,  999.0,  999.0,  999.0,  999.0,  999.0,  999.0,  999.0,  999.0,  999.0,  999.0,  999.0,  999.0,  999.0,  999.0,  999.0,  999.0,  999.0,  999.0,  999.0,  999.0,  999.0,  999.0,  999.0,  999.0,  999.0
2005/08/20 09:30,  999.0,   -0.5,   -0.6,   -0.1,   -0.1,    1.1,    1.0,    1.5,    2.4,    3.3,    3.0,    3.3,    2.3,    3.3,    4.0,    3.8,    3.6,    4.0,    4.7,    4.8,    4.7,    4.8,    4.8,    4.9,    5.4,    5.0,  999.0,  999.0,    5.7,    5.5,    4.6,    4.3,    3.1,    3.5,    4.4,  999.0,  999.0,    3.5,  999.0,    2.1,  999.0,  999.0,  999.0,  999.0,  999.0,  999.0,  999.0,  999.0,  999.0,  999.0,  999.0,  999.0,  999.0,  999.0,  999.0,  999.0,  999.0,  999.0,  999.0,  999.0,  999.0,  999.0,  999.0
2005/08/20 09:40,  999.0,   -0.7,   -0.3,   -0.4,    0.0,    0.1,    0.3,    1.6,    2.4,    3.1,    3.0,    2.8,    2.3,    1.8,    1.3,    1.5,    1.7,    2.1,    3.1,    4.0,    4.3,    4.4,    4.2,    4.4,    4.6,    5.3,  999.0,    5.2,    4.7,    4.3,    4.4,  999.0,  999.0,    2.6,  999.0,  999.0,    1.5,  999.0,    3.1,  999.0,  999.0,  999.0,  999.0,  999.0,  999.0,  999.0,  999.0,  999.0,  999.0,  999.0,  999.0,  999.0,  999.0,  999.0,  999.0,  999.0,  999.0,  999.0,  999.0,  999.0,  999.0,  999.0,  999.0
2005/08/20 09:50,  999.0,   -0.4,   -1.1,   -0.6,   -0.5,   -0.9,    1.1,    2.1,    3.6,    3.7,    3.8,    3.8,    3.9,    3.4,    1.9,    1.9,    2.8,    2.4,    3.0,    3.7,    3.5,    3.6,    4.3,    4.4,    4.3,    4.6,  999.0,  999.0,  999.0,  999.0,  999.0,  999.0,  999.0,  999.0,  999.0,  999.0,  999.0,   -0.1,   -6.0,   -2.5,  999.0,  999.0,  999.0,  999.0,  999.0,  999.0,  999.0,  999.0,  999.0,  999.0,  999.0,  999.0,  999.0,  999.0,  999.0,  999.0,  999.0,  999.0,  999.0,  999.0,  999.0,  999.0,  999.0
2005/08/20 10:00,  999.0,   -2.5,   -1.2,   -1.2,  999.0,    0.3,    1.4,    1.3,    2.1,    3.5,    3.4,    3.5,    3.8,    3.3,    2.4,    2.4,    2.7,    2.7,    2.6,    2.8,    2.9,    3.0,    3.3,    3.6,    3.8,  999.0,  999.0,  999.0,  999.0,  999.0,  999.0,  999.0,  999.0,  999.0,  999.0,  999.0,  999.0,   -0.6,  999.0,   -0.1,    0.4,  999.0,  999.0,  999.0,  999.0,  999.0,  999.0,  999.0,  999.0,  999.0,  999.0,  999.0,  999.0,  999.0,  999.0,  999.0,  999.0,  999.0,  999.0,  999.0,  999.0,  999.0,  999.0
2005/08/20 10:10,  999.0,  999.0,    0.3,   -0.8,   -0.7,   -0.2,    0.5,    0.2,    2.1,    3.8,    3.2,    3.7,    3.7,    2.5,    2.7,    3.0,    3.3,    3.0,    3.3,    3.5,    3.8,    4.1,    4.4,    4.0,    3.4,    2.5,  999.0,  999.0,  999.0,  999.0,  999.0,  999.0,  999.0,  999.0,  999.0,  999.0,  999.0,    0.1,    0.3,  999.0,   27.6,  999.0,  999.0,  999.0,  999.0,  999.0,  999.0,  999.0,  999.0,  999.0,  999.0,  999.0,  999.0,  999.0,  999.0,  999.0,  999.0,  999.0,  999.0,  999.0,  999.0,  999.0,  999.0
2005/08/20 10:20,  999.0,  999.0,   -1.2,   -1.0,    0.1,    0.6,    0.2,    1.5,    3.0,    3.3,    3.9,    3.9,    3.3,    2.2,    2.4,    2.6,    2.5,    3.0,    3.2,    3.4,    2.8,    2.7,    3.3,    4.0,    3.7,    4.5,  999.0,  999.0,  999.0,  999.0,  999.0,  999.0,  999.0,  999.0,  999.0,  999.0,  999.0,  999.0,  999.0,   27.6,  999.0,  999.0,  999.0,  999.0,  999.0,  999.0,  999.0,  999.0,  999.0,  999.0,  999.0,  999.0,  999.0,  999.0,  999.0,  999.0,  999.0,  999.0,  999.0,  999.0,  999.0,  999.0,  999.0
2005/08/20 10:30,  999.0,   -0.9,   -0.1,    0.1,   -0.0,    0.7,   -0.7,    0.8,    1.3,    2.5,    4.3,    4.0,    3.9,    3.6,    3.0,    2.7,    3.0,    3.2,    3.1,    2.9,    3.1,    3.4,    3.4,    3.5,  999.0,    2.7,  999.0,  999.0,  999.0,  999.0,  999.0,  999.0,   54.9,  999.0,   54.8,   54.9,  999.0,   54.8,   54.7,   55.0,   55.0,  999.0,  999.0,  999.0,  999.0,  999.0,  999.0,  999.0,  999.0,  999.0,  999.0,  999.0,  999.0,  999.0,  999.0,  999.0,  999.0,  999.0,  999.0,  999.0,  999.0,  999.0,  999.0
2005/08/20 10:40,  999.0,   -3.1,   -1.3,   -1.0,   -1.3,    0.1,    0.4,    0.4,    0.8,    2.6,    3.0,    3.8,    3.6,    2.8,    2.2,    1.7,    2.1,    2.7,    3.2,    3.8,    4.3,    3.7,    4.1,    4.6,    4.2,    2.3,    3.2,  999.0,  999.0,  999.0,  999.0,  999.0,  999.0,  999.0,  999.0,  999.0,  999.0,  999.0,  999.0,  999.0,  999.0,  999.0,  999.0,  999.0,  999.0,  999.0,  999.0,  999.0,  999.0,  999.0,  999.0,  999.0,  999.0,  999.0,  999.0,  999.0,  999.0,  999.0,  999.0,  999.0,  999.0,  999.0,  999.0
2005/08/20 10:50,  999.0,   -2.9,   -1.6,   -0.4,    0.9,    1.3,   -0.4,    1.2,    1.0,    1.4,    3.2,    4.4,    4.6,    3.9,    3.7,    3.3,    3.0,    2.5,    3.1,    2.7,    3.0,    2.7,    3.2,  999.0,    2.8,  999.0,  999.0,  999.0,  999.0,  999.0,  999.0,  999.0,  999.0,  999.0,   41.3,   36.4,   45.4,   45.6,   54.8,   41.3,  999.0,  999.0,  999.0,  999.0,  999.0,  999.0,  999.0,  999.0,  999.0,  999.0,  999.0,  999.0,  999.0,  999.0,  999.0,  999.0,  999.0,  999.0,  999.0,  999.0,  999.0,  999.0,  999.0
2005/08/20 11:00,  999.0,   -0.9,   -0.6,    0.4,    1.9,   -0.5,   -1.1,   -0.0,    0.2,    1.4,    3.4,    4.7,    4.2,    3.3,    2.8,    2.6,    2.2,    1.6,    1.7,    1.8,    3.3,    3.3,    2.2,  999.0,  999.0,  999.0,  999.0,  999.0,  999.0,  999.0,  999.0,  999.0,  999.0,  999.0,  999.0,  999.0,  999.0,  999.0,  999.0,  999.0,  999.0,  999.0,  999.0,  999.0,  999.0,  999.0,  999.0,  999.0,  999.0,  999.0,  999.0,  999.0,  999.0,  999.0,  999.0,  999.0,  999.0,  999.0,  999.0,  999.0,  999.0,  999.0,  999.0
2005/08/20 11:10,  999.0,   -1.4,   -0.7,    0.6,    1.6,    1.8,    0.9,   -0.4,    0.8,    1.7,    2.9,    3.4,    3.8,    3.2,    3.1,    2.6,    2.4,    2.3,    2.3,    3.0,    3.3,    2.6,    2.5,    2.9,  999.0,  999.0,  999.0,  999.0,  999.0,  999.0,  999.0,  999.0,  999.0,  999.0,  999.0,  999.0,  999.0,  999.0,  999.0,  999.0,  999.0,  999.0,  999.0,  999.0,  999.0,  999.0,  999.0,  999.0,  999.0,  999.0,  999.0,  999.0,  999.0,  999.0,  999.0,  999.0,  999.0,  999.0,  999.0,  999.0,  999.0,  999.0,  999.0
2005/08/20 11:20,  999.0,   -1.5,   -0.7,   -0.9,   -0.7,    0.8,    0.6,    0.3,    0.8,    1.5,    3.6,    4.2,    4.9,    5.2,    4.4,    4.0,    3.7,    3.0,    2.9,    3.2,    2.7,    3.5,    4.8,    4.0,    3.3,  999.0,  999.0,  999.0,  999.0,  999.0,  999.0,  999.0,  999.0,  999.0,  999.0,  999.0,  999.0,  999.0,  999.0,  999.0,  999.0,  999.0,  999.0,  999.0,  999.0,  999.0,  999.0,  999.0,  999.0,  999.0,  999.0,  999.0,  999.0,  999.0,  999.0,  999.0,  999.0,  999.0,  999.0,  999.0,  999.0,  999.0,  999.0
2005/08/20 11:30,  999.0,   -0.5,   -0.6,    0.2,    0.9,    1.8,    0.7,    0.3,    0.2,    1.3,    3.2,    3.9,    4.3,    4.9,    4.6,    3.9,    3.6,    4.2,    3.9,    4.0,    4.3,    4.5,    4.4,    4.3,    3.6,  999.0,  999.0,  999.0,  999.0,  999.0,  999.0,  999.0,  999.0,  999.0,  999.0,  999.0,  999.0,  999.0,  999.0,  999.0,  999.0,  999.0,  999.0,  999.0,  999.0,  999.0,  999.0,  999.0,  999.0,  999.0,  999.0,  999.0,  999.0,  999.0,  999.0,  999.0,  999.0,  999.0,  999.0,  999.0,  999.0,  999.0,  999.0
2005/08/20 11:40,  999.0,    0.9,   -0.9,   -1.2,   -0.0,    0.7,    1.5,    2.3,    2.2,    3.7,    4.3,    4.6,    5.6,    5.5,    5.2,    4.9,    3.8,    3.5,    4.6,    4.4,    3.8,    3.3,    3.0,    2.9,    4.4,  999.0,    2.5,    3.5,  999.0,  999.0,  999.0,    0.5,    2.5,  999.0,  999.0,  999.0,  999.0,  999.0,  999.0,  999.0,  999.0,  999.0,  999.0,  999.0,  999.0,  999.0,  999.0,  999.0,  999.0,  999.0,  999.0,  999.0,  999.0,  999.0,  999.0,  999.0,  999.0,  999.0,  999.0,  999.0,  999.0,  999.0,  999.0
2005/08/20 11:50,  999.0,   -1.3,   -0.7,   -1.5,    0.2,   -0.4,    0.7,    1.3,    2.3,    4.0,    5.3,    5.6,    5.8,    5.4,    4.2,    3.4,    3.7,    3.1,    3.4,    3.5,    3.2,    3.7,    3.4,    2.7,    4.0,    2.6,  999.0,  999.0,   21.8,    3.1,  999.0,  999.0,  999.0,  999.0,  999.0,   13.5,   13.9,    9.3,    0.2,   -6.7,  -13.0,   -6.8,  999.0,  999.0,  999.0,  999.0,  999.0,  999.0,  999.0,  999.0,  999.0,  999.0,  999.0,  999.0,  999.0,  999.0,  999.0,  999.0,  999.0,  999.0,  999.0,  999.0,  999.0
2005/08/20 12:00,  999.0,  999.0,   -0.8,    0.2,    0.1,   -0.5,   -0.8,    0.1,    1.2,    3.3,    3.7,    4.8,    6.0,    6.5,    5.5,    4.8,    3.9,    3.9,    3.5,    3.8,    3.8,    4.3,    3.9,    4.2,    4.9,    4.9,    5.6,    3.4,   -6.8,  -11.3,  999.0,   -4.5,  999.0,  999.0,  999.0,  999.0,  999.0,  999.0,  999.0,  999.0,  999.0,  999.0,  999.0,  999.0,  999.0,  999.0,  999.0,  999.0,  999.0,  999.0,  999.0,  999.0,  999.0,  999.0,  999.0,  999.0,  999.0,  999.0,  999.0,  999.0,  999.0,  999.0,  999.0
2005/08/20 12:10,  999.0,   -1.2,   -0.6,   -2.0,   -1.2,    0.7,    1.7,    2.3,    1.0,    3.1,    4.1,    4.5,    4.7,    4.9,    4.8,    4.0,    2.5,    2.7,    2.2,    2.1,    2.1,    2.3,    3.9,    4.3,    4.5,    4.5,  999.0,    3.3,  999.0,  999.0,  -10.5,   -2.5,  -10.8,   -3.7,  999.0,  999.0,  999.0,  999.0,  999.0,  999.0,  999.0,  999.0,  999.0,  999.0,  999.0,  999.0,  999.0,  999.0,  999.0,  999.0,  999.0,  999.0,  999.0,  999.0,  999.0,  999.0,  999.0,  999.0,  999.0,  999.0,  999.0,  999.0,  999.0
2005/08/20 12:20,  999.0,   -1.6,   -0.5,   -0.8,   -0.2,    0.7,    1.0,    0.4,    0.6,    1.3,    1.9,    3.3,    3.2,    3.7,    2.7,    2.5,    2.1,    1.1,    1.4,    1.0,    1.4,    1.4,    2.1,    3.3,    3.8,    2.7,    2.9,    3.2,  -11.6,   -6.2,  999.0,  999.0,  999.0,  999.0,  999.0,  999.0,  999.0,  999.0,  999.0,   15.3,   15.0,  999.0,  999.0,  999.0,  999.0,  999.0,  999.0,  999.0,  999.0,  999.0,  999.0,  999.0,  999.0,  999.0,  999.0,  999.0,  999.0,  999.0,  999.0,  999.0,  999.0,  999.0,  999.0
2005/08/20 12:30,  999.0,   -2.5,   -1.3,   -1.4,   -0.6,    0.3,    0.2,    0.4,    0.7,    1.9,    3.1,    3.7,    4.2,    4.1,    3.4,    3.6,    3.3,    2.1,    1.7,    2.4,    2.8,    2.3,    2.7,    4.0,    3.6,    2.4,    3.0,  999.0,  999.0,   16.3,  999.0,  999.0,  -18.7,    0.9,  999.0,  999.0,  999.0,  999.0,   15.7,  999.0,  999.0,  999.0,  999.0,  999.0,  999.0,  999.0,  999.0,  999.0,  999.0,  999.0,  999.0,  999.0,  999.0,  999.0,  999.0,  999.0,  999.0,  999.0,  999.0,  999.0,  999.0,  999.0,  999.0
2005/08/20 12:40,  999.0,   -0.8,    0.9,   -0.5,    0.1,    0.7,    0.7,    1.4,    2.9,    3.6,    3.8,    3.6,    3.9,    3.9,    3.1,    2.2,    1.8,    2.5,    3.3,    3.2,    3.1,    4.0,    4.5,    4.2,    4.4,    1.9,    1.8,    5.1,    3.6,   -1.5,    2.7,  999.0,  999.0,  999.0,  999.0,  999.0,  999.0,  999.0,   -3.4,    3.4,  999.0,  999.0,  999.0,  999.0,  999.0,  999.0,  999.0,  999.0,  999.0,  999.0,  999.0,  999.0,  999.0,  999.0,  999.0,  999.0,  999.0,  999.0,  999.0,  999.0,  999.0,  999.0,  999.0
2005/08/20 12:50,  999.0,   -0.9,   -1.2,   -0.0,    0.1,   -0.8,   -1.2,    1.8,    0.5,   -1.5,  999.0,    0.5,    1.0,    3.8,    3.2,    3.4,    2.4,    2.0,    3.0,    4.4,    2.4,    2.2,    4.3,    4.3,    4.1,    5.6,    3.9,    4.3,    4.7,    5.9,    7.4,    6.0,    5.8,    6.6,    5.0,    1.6,    2.8,    3.6,    2.0,    1.1,    1.6,    6.8,  999.0,    4.8,  999.0,  999.0,  999.0,  999.0,  999.0,  999.0,  999.0,  999.0,  999.0,  999.0,  999.0,  999.0,  999.0,  999.0,  999.0,  999.0,  999.0,  999.0,  999.0
2005/08/20 13:00,  999.0,   -2.5,   -1.4,   -0.4,    1.1,    1.8,    1.7,    3.2,    2.9,    3.0,    3.6,    5.9,    5.4,    5.0,    5.2,    5.8,    6.0,    5.4,    5.3,    4.7,    4.8,    4.4,    3.8,    2.4,    1.4,    1.5,    1.0,    2.1,    2.2,    4.9,    4.9,    8.5,    8.0,    7.8,    8.2,    8.3,    8.9,    9.6,    6.0,    7.0,    5.5,    5.4,    4.9,    4.6,    5.4,  999.0,  999.0,  999.0,  999.0,  999.0,  999.0,  999.0,  999.0,  999.0,  999.0,  999.0,  999.0,  999.0,  999.0,  999.0,  999.0,  999.0,  999.0
2005/08/20 13:10,  999.0,   -2.2,   -2.4,   -0.5,    1.4,    2.4,    3.2,    4.6,    4.3,    4.8,    5.6,    6.2,    6.2,    6.4,    5.8,    6.2,    6.3,    7.0,    8.3,    8.7,    8.6,    8.5,    6.4,    5.6,    4.2,    2.5,    3.1,    1.9,   -0.1,   -0.1,   -1.4,   -0.1,    2.1,    2.9,    3.5,    4.9,    4.8,    1.8,    2.0,    3.4,    3.2,    4.6,    3.9,    3.6,    4.6,    4.7,  999.0,  999.0,  999.0,  999.0,  999.0,  999.0,  999.0,  999.0,  999.0,  999.0,  999.0,  999.0,  999.0,  999.0,  999.0,  999.0,  999.0
2005/08/20 13:20,  999.0,   -3.9,   -3.2,   -1.2,   -0.5,   -1.7,    0.8,    2.4,    1.6,    5.3,    3.8,    2.3,    1.8,  999.0,   10.0,   -2.4,    2.5,   -0.3,    1.1,    2.4,    2.4,    1.2,    3.3,  999.0,    2.4,    4.3,    3.2,    8.0,    4.2,  999.0,  999.0,   -0.3,   -2.1,   -3.3,   -1.5,  999.0,   -3.4,   -3.6,  999.0,   -4.2,   -2.4,   -1.3,   -2.5,   -2.0,  999.0,    4.1,    4.5,  999.0,  999.0,  999.0,  999.0,   -5.1,   -3.0,   -2.1,   -5.9,   -4.7,   -3.6,   -1.9,  999.0,  999.0,  999.0,  999.0,  999.0
2005/08/20 13:30,  999.0,   -3.6,   -1.2,   -1.0,   -0.9,   -1.7,    1.4,    2.1,    2.1,    3.2,    4.2,  999.0,    3.0,    1.8,    3.1,    3.2,    2.4,    4.0,    2.8,    2.4,    1.9,    2.4,    1.9,    2.3,    1.9,  999.0,    0.1,    0.0,   -0.1,    1.3,    0.5,  999.0,  999.0,  999.0,  999.0,  999.0,  999.0,  999.0,  999.0,  999.0,  999.0,  999.0,  999.0,  999.0,  999.0,  999.0,  999.0,  999.0,  999.0,  999.0,  999.0,  999.0,  999.0,  999.0,  999.0,  999.0,  999.0,  999.0,  999.0,  999.0,  999.0,  999.0,  999.0
2005/08/20 13:40,  999.0,   -1.4,  999.0,  999.0,   -0.0,    1.2,    2.1,    3.1,    3.1,    3.5,    2.6,    2.9,    3.2,    4.8,    4.5,    3.2,    4.1,    2.3,    3.5,    3.5,    3.9,    5.1,    3.7,    4.0,    3.2,  999.0,    1.3,    4.4,    4.1,    4.0,    3.7,  999.0,  999.0,  999.0,  999.0,  999.0,  999.0,  999.0,  999.0,  999.0,  999.0,  999.0,  999.0,  999.0,  999.0,  999.0,  999.0,  999.0,  999.0,  999.0,  999.0,  999.0,  999.0,  999.0,  999.0,  999.0,  999.0,  999.0,  999.0,  999.0,  999.0,  999.0,  999.0
2005/08/20 13:50,  999.0,   -1.4,   -0.5,   -0.9,   -0.2,    1.0,    2.3,    1.3,    2.2,    2.4,    1.7,    1.6,    3.1,    4.2,    3.1,    3.5,    3.5,    4.7,    4.3,    2.9,    2.0,    1.4,    2.3,    3.4,    2.3,    2.5,    3.9,    4.3,    2.8,  999.0,    3.4,    3.5,  999.0,    1.7,  999.0,  999.0,  999.0,  999.0,  999.0,  999.0,  999.0,  999.0,  999.0,  999.0,  999.0,  999.0,  999.0,  999.0,  999.0,  999.0,  999.0,  999.0,  999.0,  999.0,  999.0,  999.0,  999.0,  999.0,  999.0,  999.0,  999.0,    3.7,    3.7
2005/08/20 14:00,  999.0,   -2.0,   -1.1,   -0.7,   -0.2,    0.9,    1.3,    2.3,    2.6,    2.8,    2.7,    3.1,    3.0,    3.6,    3.9,    3.5,    4.6,    4.5,    4.0,    5.1,    5.0,    4.9,    5.1,    4.8,    4.9,    4.9,    5.2,    5.2,    4.0,    3.7,    2.6,  999.0,  999.0,  999.0,  999.0,  999.0,  999.0,  999.0,  999.0,  999.0,  999.0,  999.0,  999.0,  999.0,  999.0,  999.0,  999.0,  999.0,  999.0,  999.0,  999.0,  999.0,  999.0,  999.0,  999.0,  999.0,  999.0,  999.0,  999.0,  999.0,  999.0,  999.0,  999.0
2005/08/20 14:10,  999.0,   -5.6,   -4.2,    1.6,   -1.4,    0.3,    1.2,    1.5,    2.9,    2.9,    2.9,    3.5,    3.4,    4.0,    3.6,    3.9,    4.6,    5.7,    5.1,    2.3,    1.7,    1.5,    1.7,    1.1,    1.3,    1.6,    2.6,    3.5,    4.7,    4.9,    4.6,    4.3,    3.3,  999.0,  999.0,  999.0,  999.0,  999.0,  999.0,  999.0,  999.0,  999.0,  999.0,  999.0,  999.0,  999.0,  999.0,  999.0,  999.0,  999.0,  999.0,  999.0,  999.0,  999.0,  999.0,  999.0,  999.0,  999.0,  999.0,  999.0,  999.0,  999.0,  999.0
2005/08/20 14:20,  999.0,    0.9,   -1.4,   -4.4,   -1.3,   -2.3,   -0.8,    0.0,    1.7,    1.5,    0.1,   -0.1,  999.0,  999.0,    1.9,    3.4,    5.4,    5.1,    5.1,    3.1,    3.9,    3.8,    5.5,    6.7,    7.0,    5.7,    5.3,    5.4,    5.4,    5.5,   -1.2,    2.9,  999.0,    0.7,   -0.3,   -0.1,    0.2,    0.3,    0.5,   -0.7,   -0.7,    0.1,    0.5,   -0.1,    0.4,    0.4,   -0.0,    0.3,    0.2,   -0.1,    0.3,    0.9,    0.3,    0.1,    0.2,   -0.1,    0.7,   -1.4,   -0.4,  999.0,    0.2,    0.6,    0.6
2005/08/20 14:30,  999.0,    0.5,  999.0,   -3.0,   -0.5,  999.0,    3.6,  999.0,    6.7,    3.9,    3.7,    3.9,    2.9,    4.4,    6.5,    7.5,    4.7,    4.6,    7.2,  999.0,    4.9,    4.9,    5.2,    4.9,    5.0,    3.1,    4.0,    3.8,    1.9,   -0.3,   -2.2,    2.5,    0.2,    0.6,   -2.8,   -1.9,   -0.2,   -1.9,   -0.7,   -0.2,   -0.4,   -0.0,    0.5,    0.2,    0.4,   -0.8,    0.5,    0.9,    1.1,   -0.2,    0.0,   -1.1,    0.2,   -0.0,   -0.2,    0.3,   -1.0,   -2.4,   -4.3,   -4.4,   -5.0,   -3.2,   -1.3
2005/08/20 14:40,  999.0,   -2.7,   -4.8,   -4.2,   -2.3,   -1.0,   -0.3,   -0.1,    1.6,    0.4,    2.1,   -2.5,   -1.9,    0.7,    1.5,    2.0,    4.6,    3.7,    4.0,    5.8,    5.1,    5.8,    8.3,    9.0,    2.3,    4.2,    9.1,   11.8,  999.0,   11.4,    9.7,   -1.7,    3.5,    9.4,   10.6,    3.4,    3.1,   -2.0,   -2.7,  999.0,  999.0,  999.0,  999.0,  999.0,  999.0,  999.0,  999.0,  999.0,  999.0,  999.0,  999.0,  999.0,  999.0,  999.0,  999.0,  999.0,  999.0,  999.0,  999.0,  999.0,  999.0,  999.0,  999.0
2005/08/20 14:50,  999.0,   -2.5,   -4.1,   -4.4,   -3.6,   -1.5,   -0.2,    0.8,    0.8,    0.9,    0.7,   -0.2,   -1.1,    0.5,   -1.6,   -0.1,   -1.1,   -0.8,    2.3,    1.8,    2.1,    3.4,    1.8,   -3.1,    5.3,   -3.4,  999.0,    1.9,    6.5,   -3.7,   -0.8,    5.5,    2.8,  999.0,    3.9,    5.1,    1.7,    1.4,    5.9,  999.0,  999.0,  999.0,  999.0,  999.0,  999.0,  999.0,  999.0,  999.0,  999.0,  999.0,  999.0,  999.0,  999.0,  999.0,  999.0,  999.0,  999.0,  999.0,  999.0,  999.0,  999.0,  999.0,  999.0
2005/08/20 15:00,  999.0,   -3.0,   -3.6,   -3.0,   -0.9,   -2.4,   -0.8,    1.2,   -1.2,    1.4,    0.4,    1.8,    2.1,    0.9,    2.9,   -0.3,    0.6,    1.3,    1.1,    0.8,    1.2,    0.4,    1.7,    2.4,    2.8,    1.3,    1.2,    0.4,    1.1,    1.8,    2.0,    1.5,    1.7,    3.2,    3.4,    6.7,  999.0,  999.0,    5.7,    7.0,  999.0,  999.0,  999.0,  999.0,  999.0,  999.0,  999.0,  999.0,  999.0,  999.0,  999.0,  999.0,  999.0,  999.0,  999.0,  999.0,  999.0,  999.0,  999.0,  999.0,  999.0,  999.0,  999.0
2005/08/20 15:10,  999.0,    0.1,   -2.2,   -4.6,   -3.6,   -1.2,   -1.0,   -1.9,   -1.0,   -1.4,   -1.1,   -1.6,   -1.9,   -1.8,   -2.7,    2.2,   -0.0,   -0.8,    0.1,   -1.4,    1.0,    3.0,    0.6,   -1.4,   -1.5,    0.0,    1.7,    1.6,  999.0,  999.0,  999.0,  999.0,  999.0,  999.0,  999.0,   42.5,  999.0,  999.0,  999.0,   39.5,   26.8,   30.3,   28.4,  999.0,  999.0,  999.0,  999.0,  999.0,  999.0,  999.0,  999.0,  999.0,  999.0,  999.0,  999.0,  999.0,  999.0,  999.0,  999.0,  999.0,  999.0,  999.0,  999.0
2005/08/20 15:20,  999.0,   -0.7,   -0.9,   -0.7,   -2.2,   -1.0,    1.0,    1.2,    1.1,    1.7,    1.9,    1.0,   -0.2,    2.0,    0.7,    1.0,    0.4,    1.0,    1.6,    2.3,    1.9,    0.9,    2.7,    3.7,    4.0,    4.6,    4.4,    3.9,    4.3,  999.0,  999.0,  999.0,  999.0,  999.0,  999.0,  999.0,  999.0,  999.0,  999.0,  999.0,   54.9,  999.0,   55.3,   54.9,  999.0,  999.0,  999.0,  999.0,  999.0,  999.0,  999.0,  999.0,  999.0,  999.0,  999.0,  999.0,  999.0,  999.0,  999.0,  999.0,  999.0,  999.0,  999.0
2005/08/20 15:30,  999.0,   -3.0,   -3.8,   -4.4,   -1.8,   -0.7,    0.6,    1.3,    0.8,    0.4,    0.0,    1.1,    1.1,    0.6,    1.2,    1.6,    2.1,    2.4,    2.6,    3.4,    4.1,    5.7,    5.6,    5.5,    5.6,    5.0,    4.9,    5.9,    5.3,  999.0,    6.3,    7.5,  999.0,  999.0,  999.0,  999.0,  999.0,    2.9,    2.7,  999.0,  999.0,  999.0,  999.0,  999.0,  999.0,  999.0,  999.0,  999.0,  999.0,  999.0,  999.0,  999.0,  999.0,  999.0,  999.0,  999.0,  999.0,  999.0,  999.0,  999.0,  999.0,  999.0,  999.0
2005/08/20 15:40,  999.0,   -4.1,   -3.9,   -3.3,   -3.0,   -2.3,   -0.9,   -0.8,   -0.7,   -0.5,   -0.9,   -0.2,   -0.5,    0.2,    0.8,    1.1,    1.5,    1.7,    2.1,    1.8,    1.7,    2.8,    3.8,    4.3,    4.5,    4.8,    5.0,    5.7,    5.6,    7.9,    7.7,    7.5,    7.3,    5.6,  999.0,  999.0,    5.3,    3.9,  999.0,    0.3,  999.0,    2.6,    2.6,  999.0,  999.0,  999.0,  999.0,  999.0,  999.0,  999.0,  999.0,  999.0,  999.0,  999.0,  999.0,  999.0,  999.0,  999.0,  999.0,  999.0,  999.0,  999.0,  999.0
2005/08/20 15:50,  999.0,   -4.8,  999.0,   -6.3,  999.0,  999.0,   -7.8,  999.0,  999.0,  999.0,  999.0,  999.0,    5.7,    3.9,    3.6,    3.6,    1.9,    1.7,    0.8,   -0.0,    0.1,    2.2,    3.4,    4.1,    4.7,    5.3,    4.1,    2.9,    2.8,    2.1,    2.1,    3.6,    4.2,    5.2,    6.6,    7.6,  999.0,  999.0,  999.0,  999.0,  999.0,  999.0,  999.0,  999.0,  999.0,  999.0,  999.0,  999.0,  999.0,  999.0,  999.0,  999.0,  999.0,  999.0,    6.5,    6.5,  999.0,  999.0,  999.0,  999.0,  999.0,  999.0,  999.0
2005/08/20 16:00,  999.0,   -2.0,   -1.9,   -2.0,   -3.2,   -2.3,   -0.9,   -0.5,    0.1,    0.7,    0.5,    0.2,   -0.3,   -0.2,   -0.7,   -1.2,   -2.3,   -2.5,   -1.9,   -1.8,   -0.9,    0.0,    0.5,    1.1,    0.8,    0.8,    1.5,    2.6,    3.8,    4.6,    4.8,    5.7,    6.4,  999.0,    3.6,    4.1,  999.0,  999.0,    9.5,    3.9,    3.0,    4.0,    4.1,    4.4,    3.6,    5.0,    4.4,    3.7,    4.0,    3.9,    4.3,    4.1,    4.8,    5.7,    6.9,    8.1,    9.3,    8.4,    8.8,    4.2,    4.8,    6.7,   11.5
2005/08/20 16:10,  999.0,    0.8,    0.2,   -1.3,   -0.9,   -0.3,    0.4,    0.3,    0.4,    0.1,   -0.1,   -0.5,   -1.1,   -1.3,   -1.8,   -1.2,   -0.7,    0.1,    1.7,    2.0,    2.6,    3.8,    4.7,    3.7,    4.7,    5.3,    5.6,    5.5,    6.9,    7.4,    6.4,    5.5,    5.0,    4.5,    3.9,    3.4,    4.1,    4.7,    5.5,    5.5,    5.4,    6.9,    7.7,    7.6,    8.1,    7.0,    6.0,    6.9,    7.8,    8.7,    8.2,    8.8,    9.0,    9.0,    9.0,    8.2,    7.6,    6.1,    5.1,    4.4,    3.4,    2.4,    1.3
2005/08/20 16:20,  999.0,   -1.6,   -1.2,   -1.4,   -1.7,   -1.3,   -1.5,   -1.5,   -1.9,   -1.2,   -1.3,   -0.9,   -0.2,   -0.2,   -0.2,   -0.3,   -0.4,    0.2,    1.7,    3.1,    4.2,    4.7,    4.1,    4.5,    5.0,    4.9,    5.8,    8.4,    8.7,    8.3,    5.9,    5.2,    3.9,    3.4,    3.3,    3.2,    3.6,    3.3,    4.2,    2.9,    4.1,    3.7,    4.6,    4.7,    4.1,    3.3,    3.2,    3.5,    3.6,    3.6,    4.1,    4.7,    6.3,    6.4,    6.2,    6.2,    4.5,    2.0,    3.4,    1.4,    1.3,    0.9,    1.0
2005/08/20 16:30,  999.0,   -0.3,   -1.1,    1.3,    1.8,    1.7,   -0.5,   -1.1,   -2.7,   -0.5,   -1.0,    1.7,    2.0,    1.7,   -0.6,   -0.5,   -0.1,   -0.7,   -0.5,    0.3,    1.2,    1.0,    1.9,    2.8,    3.4,    3.9,    4.0,    4.7,   -1.2,   -0.1,   -0.4,   -1.0,  999.0,  999.0,  999.0,   -2.8,   -1.7,   -0.1,  999.0,    0.4,    2.9,   -0.8,  999.0,    4.4,    5.6,    3.4,    4.5,    5.3,    4.9,    3.7,    4.0,    4.9,    5.8,    6.1,    5.9,    5.4,    4.4,    3.4,    4.2,    4.4,    4.1,    3.3,    2.7
2005/08/20 16:40,  999.0,    0.3,   -1.0,   -0.6,   -0.3,   -0.6,   -0.7,   -0.5,   -0.0,    0.4,    0.3,    0.4,    1.1,    1.5,    2.1,    3.0,    2.6,    2.9,    2.9,    2.7,    2.4,    2.4,    2.7,    3.3,    3.8,    3.8,    1.1,   -0.2,   -1.0,   -0.7,    0.5,    1.4,   -0.6,   -0.3,    0.4,    0.8,    1.1,    1.5,    1.7,    2.3,    1.8,    1.6,  999.0,  999.0,  999.0,    7.4,    6.7,    5.6,    5.8,    5.3,    5.1,    4.5,    5.3,    6.3,    7.5,    8.0,    7.3,    5.7,    3.9,    3.8,    3.7,    2.9,    3.3
2005/08/20 16:50,  999.0,    0.5,   -0.1,    0.4,    0.8,    0.5,    1.5,    0.6,    1.2,    0.9,    2.3,    2.4,    2.6,    3.3,    3.6,    3.6,    3.2,    3.3,    4.1,    4.7,    5.6,    5.9,    5.6,    6.0,    4.8,    4.6,    4.6,    6.1,    4.1,    4.1,    3.9,    4.1,    4.5,    4.5,    4.0,    5.0,    4.7,    4.3,    4.3,    5.5,    4.2,    3.2,    3.2,    2.9,    3.4,    3.9,    3.0,    4.4,    5.9,    4.4,    3.1,    3.5,    4.5,    4.3,    4.6,    4.1,    4.1,    4.0,    3.6,    1.8,    0.0,    0.4,    0.4
2005/08/20 17:00,  999.0,   -0.9,   -0.2,   -0.1,   -0.9,  999.0,  999.0,    0.3,    2.1,    2.2,    2.6,    2.3,    1.2,    1.8,    3.3,    4.4,    5.7,    7.6,    8.1,    8.5,    6.9,    6.2,    4.8,    4.8,    5.0,    5.0,  999.0,  999.0,    4.0,    4.8,    6.4,    5.5,    4.7,    4.6,    5.0,    4.5,    4.8,    6.5,    7.4,    6.4,    6.2,    6.0,    5.6,    5.5,    5.7,    5.8,    6.4,    6.2,    5.6,    5.0,    3.6,    2.1,    1.9,    3.2,    4.2,    4.2,    4.1,    3.7,    3.1,    2.2,    1.0,   -0.4,   -0.4
2005/08/20 17:10,  999.0,   -1.3,   -0.7,   -0.5,   -2.4,   -3.5,   -0.0,    1.2,    1.5,    1.0,    0.0,    1.4,    3.9,    4.9,    4.9,    4.3,    3.2,    3.5,    4.4,    4.3,    4.4,    4.8,    3.6,    4.2,    5.2,    4.3,    2.9,    4.0,    2.0,    3.2,    3.5,    3.3,  999.0,    2.1,    2.7,  999.0,    2.5,    3.9,    1.6,  999.0,    4.4,    4.0,    4.0,    4.8,    4.5,    5.9,    5.6,    5.1,    5.0,    5.5,    5.6,    5.0,    2.9,    3.4,    2.8,    2.9,    3.2,    3.3,    3.8,    3.7,    3.0,    1.8,    1.1
2005/08/20 17:20,  999.0,   -0.8,   -1.6,   -1.3,    0.3,    0.9,    0.5,    1.0,    1.9,    3.1,    3.9,    4.4,    5.1,    4.2,    3.3,    3.1,    3.6,    3.5,    3.8,    3.5,    3.2,    3.2,    3.0,    3.2,    2.8,    2.1,    1.7,    2.0,    1.5,    2.2,    2.6,    1.0,  999.0,    1.8,    2.7,    3.7,  999.0,    3.1,    2.5,    1.0,    4.5,    3.3,    3.9,    3.7,    3.0,    3.2,    3.1,  999.0,  999.0,    5.2,    5.9,    6.7,    6.9,    6.1,    4.5,    2.7,    2.6,    2.9,    3.5,    3.9,    2.9,    0.1,   -1.0
2005/08/20 17:30,  999.0,   -0.5,   -0.2,    0.7,    1.2,    2.3,    3.1,    2.6,    3.8,    4.5,    4.8,    4.1,    3.4,    3.4,    2.6,    2.6,    2.6,    2.7,    3.6,    3.5,    3.0,    3.4,    3.4,    3.4,    2.6,    2.0,    1.3,    0.6,    1.0,    1.3,    1.6,    2.2,    1.8,    2.2,    1.6,    2.4,    1.7,  999.0,  999.0,  999.0,  999.0,  999.0,  999.0,  999.0,  999.0,  999.0,    5.3,    5.0,    3.8,    3.5,    3.5,    3.4,    3.5,    3.7,    2.1,   -0.0,   -0.3,    1.2,    3.1,    3.2,    2.3,   -0.8,   -2.3
2005/08/20 17:40,  999.0,   -0.7,   -0.2,    0.6,    2.5,    3.7,    4.1,    4.4,    4.4,    4.6,    4.3,    3.8,    3.1,    2.5,    2.6,    2.3,    1.7,    1.5,    1.5,    1.1,    1.4,    2.2,    1.7,    1.5,  999.0,    0.4,    0.6,    1.5,  999.0,  999.0,    2.2,   -7.3,   -6.6,  -11.7,  999.0,  999.0,  999.0,  999.0,  999.0,  999.0,  999.0,  999.0,  999.0,  999.0,  999.0,  999.0,  999.0,  999.0,  999.0,  999.0,    3.2,    3.3,    5.6,    5.0,    2.6,    1.2,   -1.9,   -2.0,   -1.2,   -0.3,    0.7,    0.7,   -0.3
2005/08/20 17:50,  999.0,   -0.1,    0.6,    1.7,    3.7,    4.4,    4.8,    5.6,    5.1,    4.4,    3.3,    3.2,    3.5,    3.6,    2.7,    2.0,    1.7,    1.7,    1.4,    1.3,    1.5,    1.6,    1.6,  999.0,   -0.4,    0.5,  999.0,    1.2,    1.8,  999.0,  999.0,    2.6,  999.0,  999.0,    3.3,    3.5,  999.0,    3.5,    2.9,  999.0,    4.1,  999.0,  999.0,  999.0,  999.0,  999.0,  999.0,  999.0,    3.5,    1.7,  999.0,    4.1,    5.3,    4.8,    2.9,    1.2,   -0.1,   -1.5,   -1.7,   -1.7,   -1.2,   -0.6,   -0.3
2005/08/20 18:00,  999.0,   -1.3,    1.3,    3.2,    4.0,    4.4,  999.0,    5.3,    5.0,    5.2,    5.0,    4.9,    4.0,    3.9,    3.7,    3.2,    2.4,    1.4,    1.9,    2.2,    2.4,    1.9,    2.9,    2.6,    2.3,    1.8,    1.6,    1.7,    1.5,    1.3,  999.0,  999.0,  999.0,  999.0,  999.0,  999.0,  999.0,  999.0,  999.0,  999.0,  999.0,   45.2,  999.0,  999.0,  999.0,  999.0,  999.0,  999.0,  999.0,  999.0,  999.0,  999.0,  999.0,  999.0,  999.0,    2.4,    0.3,   -0.4,   -1.1,   -1.0,   -0.7,    0.1,    1.0
2005/08/20 18:10,  999.0,  999.0,    0.8,    2.5,    1.8,    4.7,    4.3,    5.4,    5.4,    5.3,    4.7,    3.8,    3.5,    2.4,    2.0,    1.8,    1.9,    1.9,    2.2,    2.2,    2.4,    2.0,    2.1,    2.7,    2.9,    2.4,    1.0,   -0.0,    1.7,    1.7,    2.2,  999.0,  999.0,  999.0,  999.0,  999.0,  999.0,  999.0,  999.0,  999.0,  999.0,  999.0,  999.0,  999.0,  999.0,  999.0,  999.0,  999.0,  999.0,  999.0,  999.0,  999.0,  999.0,  999.0,    3.1,    1.9,    0.6,   -0.3,   -1.0,   -1.5,   -1.5,   -0.6,    0.0
2005/08/20 18:20,  999.0,   -2.0,   -0.6,    0.7,   -0.1,    2.8,    4.4,    6.1,    5.3,    5.5,    5.1,    4.1,    3.8,    3.2,    3.0,    2.8,    1.8,    1.9,    2.0,    1.5,    0.1,   -1.3,   -0.1,   -0.2,    1.0,    1.3,    2.1,    2.7,    4.0,    2.5,    3.3,    2.3,    1.8,    3.2,    3.6,    4.5,    4.3,    4.9,    3.3,    1.6,    0.5,  999.0,  999.0,  999.0,  999.0,  999.0,  999.0,  999.0,  999.0,    2.1,    0.6,    1.7,    2.0,    1.6,    1.0,    1.9,    2.4,    2.1,    1.5,    1.0,    0.5,    0.9,    0.9
2005/08/20 18:30,  999.0,   -3.3,   -0.6,    1.4,   -0.8,    3.0,    4.7,    5.3,    5.8,    5.4,    4.5,    4.0,    3.7,    3.2,    2.5,    2.2,    1.9,    1.6,    1.6,    1.2,    0.5,    1.1,    0.0,   -0.2,   -0.1,    0.5,    1.2,    2.0,    1.5,    1.1,    1.8,    2.1,    2.3,    2.3,    2.9,    3.6,    3.0,    2.9,    1.3,  999.0,    0.4,  999.0,  999.0,  999.0,  999.0,  999.0,  999.0,    3.3,    3.5,    2.8,    3.6,    2.2,    1.9,    2.2,    2.3,    2.7,    3.1,    3.2,    2.7,    1.7,    0.1,   -1.3,   -0.3
2005/08/20 18:40,  999.0,  999.0,   -0.8,    1.0,   -1.4,    3.2,    4.8,    5.2,    6.1,    5.7,    4.7,    3.8,    3.0,    2.4,    1.9,    1.3,    1.2,    1.7,    2.0,    2.7,    2.6,    2.5,    2.1,    2.2,    1.6,    0.7,    1.1,    1.3,    1.6,    2.1,    2.2,    2.1,  999.0,  999.0,  999.0,  999.0,  999.0,    4.6,  999.0,  999.0,    1.4,  999.0,  999.0,  999.0,  999.0,  999.0,  999.0,  999.0,    5.2,  999.0,    4.0,    4.0,    2.5,    1.8,    2.1,    3.2,    3.3,    2.5,    1.3,    0.2,   -0.3,   -0.5,   -0.0
2005/08/20 18:50,  999.0,   -2.6,   -0.8,    0.5,  999.0,    2.1,    4.3,    4.9,    5.2,    4.6,    4.0,    3.8,    3.1,    2.5,    2.1,    1.2,    1.0,    1.8,    2.7,    2.2,    2.4,    1.8,    2.5,    3.3,    3.7,    4.4,    4.9,    3.9,    3.0,    3.3,    3.5,    3.7,    2.7,    3.2,    3.8,    3.4,    4.0,    3.4,    3.8,    2.4,  999.0,  999.0,  999.0,  999.0,  999.0,  999.0,  999.0,  999.0,  999.0,  999.0,  999.0,  999.0,    0.8,   -0.3,    0.4,    1.6,    3.5,    4.5,    3.7,    2.4,    1.9,    1.4,    1.4
2005/08/20 19:00,  999.0,   -2.7,    0.2,   -0.1,   -1.6,    2.0,    3.9,    4.2,    3.4,    3.5,    3.5,    3.5,    2.4,    2.2,    1.1,    0.8,    0.9,    0.8,    1.6,    2.2,    3.1,    2.5,    2.1,    3.1,    3.5,    3.4,    4.1,    4.4,    4.2,    4.1,    2.6,    3.3,    3.0,    3.7,    4.2,    2.4,  999.0,  999.0,  999.0,  999.0,  999.0,  999.0,  999.0,  999.0,  999.0,  999.0,  999.0,  999.0,  999.0,    3.7,    3.0,    1.8,    2.0,    1.6,   -0.2,    1.3,    2.8,    4.4,    3.9,    2.4,    1.3,    0.3,   -0.5
2005/08/20 19:10,  999.0,   -1.8,   -0.2,    0.2,   -1.1,    2.5,    3.1,    3.0,    2.8,    3.5,    3.7,    3.0,    2.4,    2.0,    1.4,    1.1,    0.9,    1.3,    1.7,    1.8,  999.0,    3.3,  999.0,    2.8,    2.9,    3.2,    4.0,    3.9,    3.5,    3.3,    3.0,    3.2,  999.0,    3.8,    4.2,  999.0,  999.0,  999.0,  999.0,  999.0,  999.0,  999.0,  999.0,  999.0,  999.0,  999.0,  999.0,  999.0,    5.3,    3.6,    2.8,    1.8,    3.0,    3.0,    1.8,    0.9,    1.3,    2.3,    2.3,    1.3,    0.9,    0.1,    0.1
2005/08/20 19:20,  999.0,   -2.1,    0.2,    0.3,   -1.0,    2.4,    3.5,    3.6,    2.8,    3.7,    3.6,    3.1,    2.2,    1.3,    0.8,    0.0,    0.5,    1.2,    1.9,    2.1,    3.6,  999.0,  999.0,  999.0,  999.0,  999.0,    2.1,    2.2,    2.3,    2.9,    2.8,    2.9,    2.9,    3.4,    3.5,    2.8,    3.5,    4.3,    4.9,    5.2,  999.0,  999.0,  999.0,  999.0,  999.0,  999.0,    5.4,    4.7,    4.1,    3.6,    2.4,    0.9,   -0.5,   -0.3,    0.0,    0.2,    0.6,    1.4,    2.1,    1.5,    0.7,    0.8,  999.0
2005/08/20 19:30,  999.0,   -1.0,   -1.0,    0.2,   -0.1,    3.3,    4.1,    4.0,    3.6,    3.3,    3.8,    2.8,    1.4,    1.2,    1.0,    1.1,    1.2,    2.0,    2.6,    3.1,    3.7,    4.5,  999.0,    4.1,    3.6,  999.0,    2.9,    2.1,  999.0,    3.1,    3.4,  999.0,    3.7,    3.7,    3.1,  999.0,  999.0,  999.0,  999.0,  999.0,  999.0,  999.0,  999.0,  999.0,  999.0,  999.0,  999.0,  999.0,  999.0,  999.0,  999.0,  999.0,  999.0,  999.0,  999.0,  999.0,  999.0,  999.0,  999.0,  999.0,  999.0,  999.0,  999.0
2005/08/20 19:40,  999.0,   -1.0,   -0.3,    1.0,    1.6,    3.3,    3.7,    3.2,    4.1,    3.7,    3.6,    2.2,    1.6,    1.4,    1.4,    1.4,    2.2,    2.7,    3.1,    3.5,    3.6,    3.9,    4.1,    4.1,    4.2,    3.1,    3.2,    3.0,    3.3,  999.0,    3.7,    2.2,    2.9,    2.0,    2.3,    3.4,    3.2,  999.0,  999.0,  999.0,    1.8,  999.0,  999.0,  999.0,  999.0,  999.0,  999.0,  999.0,  999.0,  999.0,  999.0,  999.0,  999.0,    0.2,    0.8,    1.6,    1.5,  999.0,  999.0,  999.0,  999.0,  999.0,  999.0
2005/08/20 19:50,  999.0,  999.0,  999.0,    0.7,    3.6,    3.5,    3.9,    3.7,    3.1,    3.4,    2.6,    2.1,    2.0,    1.6,    1.5,    1.5,    2.0,    2.5,    3.3,    3.6,  999.0,  999.0,  999.0,  999.0,  -10.2,  -10.6,  -10.4,  999.0,  -12.0,  999.0,  -25.7,  -25.7,  -25.3,  -25.8,  999.0,  -13.1,  999.0,  999.0,  -12.5,  -25.9,  -12.1,  -13.3,  -12.7,  999.0,   27.7,  -12.8,  -13.3,  999.0,  999.0,  999.0,  999.0,  999.0,  999.0,  999.0,  999.0,  999.0,  999.0,  999.0,  999.0,  999.0,  999.0,  999.0,  999.0
2005/08/20 20:00,  999.0,   -2.1,   -1.8,    0.0,   -0.5,    2.5,    2.5,    3.6,    4.0,    3.5,    2.8,    3.3,    2.2,    1.4,    1.8,    2.0,    1.8,    1.5,    2.2,    2.8,    3.4,    2.5,    4.1,    4.1,    3.8,    4.0,    4.6,  999.0,  999.0,  999.0,  999.0,  999.0,  999.0,  999.0,   29.9,   30.3,   29.9,   30.0,   30.5,   30.2,   30.5,   30.5,   29.7,  999.0,  999.0,  999.0,   28.1,  999.0,   29.2,  999.0,  999.0,  999.0,  999.0,  999.0,  999.0,  999.0,  999.0,  999.0,  999.0,  999.0,  999.0,  999.0,  999.0
2005/08/20 20:10,  999.0,   -1.6,   -0.4,    0.2,    0.8,    2.1,    4.0,    4.6,    3.8,    4.0,    3.7,    3.4,    2.2,    1.6,    2.0,    2.3,    2.0,    2.4,    3.0,    4.0,    4.3,    4.6,    4.8,    5.1,    4.3,    4.9,  999.0,    4.1,  999.0,  999.0,  999.0,  999.0,  999.0,  999.0,  999.0,  999.0,  999.0,  999.0,  999.0,   29.6,  999.0,   29.4,   29.5,  999.0,   28.9,  999.0,  999.0,  999.0,   28.1,  999.0,  999.0,  999.0,  999.0,  999.0,  999.0,  999.0,  999.0,  999.0,  999.0,  999.0,  999.0,  999.0,  999.0
2005/08/20 20:20,  999.0,   -1.8,    0.1,    0.3,    1.2,    3.6,    3.7,    4.2,    4.3,    4.2,    4.1,    3.0,    2.4,    2.5,    2.9,    3.0,    2.5,    2.2,    3.1,    3.9,    3.8,  999.0,    3.7,  999.0,    4.1,  999.0,    4.2,    3.6,  999.0,    3.2,  999.0,  999.0,  999.0,  999.0,  999.0,  999.0,  999.0,  999.0,  999.0,  999.0,   28.6,  999.0,  999.0,   27.8,   28.1,  999.0,  999.0,  999.0,  999.0,  999.0,  999.0,  999.0,  999.0,  999.0,  999.0,  999.0,  999.0,  999.0,  999.0,  999.0,  999.0,  999.0,  999.0
2005/08/20 20:30,  999.0,   -3.0,   -0.5,    0.5,    0.9,    3.7,    3.9,    3.8,    3.9,    4.0,    3.6,    3.5,    4.0,    2.9,    2.7,    2.2,    1.9,    1.4,    1.8,    2.5,    1.5,    3.0,    3.8,    3.4,  999.0,  999.0,  999.0,  999.0,    3.0,  999.0,  999.0,  999.0,  999.0,  999.0,  999.0,  999.0,  999.0,  999.0,  999.0,  999.0,  999.0,  999.0,  999.0,  999.0,  999.0,  999.0,  999.0,   55.2,  999.0,  999.0,  999.0,  999.0,  999.0,  999.0,  999.0,  999.0,  999.0,  999.0,  999.0,  999.0,  999.0,  999.0,  999.0
2005/08/20 20:40,  999.0,  999.0,   -0.4,    0.7,    2.2,    3.2,    4.2,    3.9,    3.9,    4.0,    4.0,    3.3,    2.9,    3.2,    2.5,    1.9,    2.0,    0.5,  999.0,  999.0,  999.0,  999.0,  999.0,  999.0,  999.0,  -20.9,  -21.2,  -26.6,  -23.1,  -22.7,  -26.6,  -26.1,  -26.5,  -26.5,  -26.2,  -27.3,  -26.0,  999.0,  -26.0,  -13.7,  999.0,  999.0,  999.0,  999.0,  999.0,  999.0,  999.0,  999.0,  999.0,  999.0,  999.0,  999.0,  999.0,  999.0,  999.0,  999.0,  999.0,  999.0,  999.0,  999.0,  999.0,  999.0,  999.0
2005/08/20 20:50,  999.0,   -0.7,   -0.2,    0.9,    2.3,    3.1,    3.3,    3.6,    4.3,    4.5,    4.2,    4.5,    3.7,    3.0,    2.6,    1.5,    1.9,    1.8,    2.7,  999.0,  999.0,  999.0,  999.0,  999.0,  999.0,  999.0,  999.0,  -27.7,  -27.8,  -26.9,  999.0,  -26.6,  -27.1,  999.0,  999.0,  -27.1,  999.0,  -26.7,  999.0,  999.0,  999.0,  999.0,  999.0,  999.0,  999.0,  999.0,  -27.5,  999.0,  999.0,  999.0,  999.0,  999.0,  999.0,  999.0,  999.0,  999.0,  999.0,  999.0,  999.0,  999.0,  999.0,  999.0,  999.0
2005/08/20 21:00,  999.0,   -2.2,   -0.6,    1.3,    3.0,    4.0,    3.6,    4.1,    4.4,    4.8,    5.3,    4.2,    3.6,    2.7,  999.0,    2.1,    2.5,    2.2,    3.3,    3.1,    3.6,    3.8,    2.6,    2.7,    2.7,    2.4,    2.2,  999.0,  999.0,  999.0,  999.0,  999.0,  999.0,  999.0,  999.0,  999.0,  -27.6,  -26.8,  999.0,  999.0,  999.0,  999.0,  999.0,  999.0,  999.0,  999.0,  999.0,  999.0,  999.0,  999.0,  999.0,  999.0,  999.0,  999.0,  999.0,  999.0,  999.0,  999.0,  999.0,  999.0,  999.0,  999.0,  999.0
2005/08/20 21:10,  999.0,   -2.1,    0.2,    2.5,    3.5,    3.3,    3.8,    3.5,    4.2,    4.8,    4.5,    4.5,    3.9,    3.1,    2.7,    2.9,    2.9,    3.5,    3.6,    3.6,    3.9,    3.9,  999.0,    3.0,    1.4,    1.0,    2.0,    2.1,    1.4,    1.2,    1.1,  999.0,    1.6,  999.0,  999.0,  999.0,  999.0,  999.0,  999.0,  999.0,  999.0,  999.0,  999.0,  999.0,  999.0,  999.0,  999.0,  999.0,  999.0,  999.0,  999.0,  -27.1,  999.0,  999.0,  999.0,  999.0,  999.0,  999.0,  999.0,  999.0,  999.0,  999.0,  999.0
2005/08/20 21:20,  999.0,   -0.3,    1.1,    2.7,  999.0,    3.9,    3.4,    3.6,    3.0,    3.1,    3.2,    3.0,    3.3,    3.6,    3.8,    3.4,    3.7,    3.6,    3.5,    3.1,    3.7,  999.0,  999.0,    2.1,  999.0,    0.2,  999.0,  999.0,    1.7,  999.0,    1.2,  999.0,  999.0,  999.0,  999.0,  999.0,  999.0,  999.0,  999.0,  999.0,  999.0,  999.0,  999.0,  999.0,  999.0,  999.0,   28.6,  999.0,  999.0,  999.0,  999.0,  999.0,  999.0,  999.0,  999.0,  999.0,  999.0,  999.0,  999.0,  999.0,  999.0,  999.0,  999.0
2005/08/20 21:30,  999.0,   -1.9,    1.1,    2.3,    3.0,    3.0,    3.2,    3.6,    3.0,    3.3,    3.2,    3.1,    3.3,    4.0,    4.0,    3.8,    4.0,    3.6,    3.4,    2.6,    2.6,    2.1,    2.4,    2.3,    1.9,    2.4,    2.3,    2.3,    4.0,  999.0,  999.0,  999.0,  999.0,  999.0,  999.0,  999.0,  999.0,  999.0,  999.0,   28.7,  999.0,   27.9,  999.0,  999.0,  999.0,  999.0,   28.5,   28.8,  999.0,  999.0,  999.0,  999.0,  999.0,  999.0,  999.0,  999.0,  999.0,  999.0,  999.0,  999.0,  999.0,  999.0,  999.0
2005/08/20 21:40,  999.0,  999.0,    2.1,    2.4,    2.3,    2.7,    3.0,    3.2,    3.4,    2.5,    2.7,    2.6,    3.4,    3.4,    3.6,    3.1,    3.7,    3.5,    3.0,    2.8,    2.2,    2.0,    2.2,    2.3,    2.5,    2.2,    2.3,    2.2,    3.0,    2.3,  999.0,  999.0,  -12.3,  999.0,  999.0,  999.0,  999.0,  999.0,  999.0,  999.0,  999.0,  -12.5,  999.0,  -26.5,  -26.8,  999.0,    1.4,    1.3,  999.0,  999.0,  999.0,  999.0,  999.0,  999.0,  999.0,  999.0,  999.0,  999.0,  999.0,  999.0,  999.0,  999.0,  999.0
2005/08/20 21:50,  999.0,   -0.5,    1.8,    0.5,    0.6,    1.8,    3.2,    2.5,    1.8,    1.5,    2.6,    3.4,    3.7,    3.3,    3.7,    3.6,    3.5,    2.9,    3.2,    3.0,    2.2,    1.9,  999.0,  999.0,  999.0,  999.0,    0.8,  999.0,  999.0,  999.0,  999.0,  999.0,  -26.9,  -26.8,  -27.3,  999.0,  -27.3,  -27.5,  999.0,  -13.5,  999.0,  -27.0,  -17.8,  999.0,  999.0,  999.0,  999.0,  999.0,  999.0,  999.0,  999.0,  999.0,  999.0,  999.0,  999.0,  999.0,  999.0,  999.0,  999.0,  999.0,  999.0,  999.0,  999.0
2005/08/20 22:00,  999.0,    0.9,    3.0,    2.6,    2.7,    3.1,    2.6,    1.9,  999.0,    3.3,    2.6,    2.9,    3.1,    3.3,    3.2,    2.7,    2.4,    2.3,    2.4,  999.0,  999.0,  999.0,  999.0,  999.0,  999.0,  999.0,  999.0,  999.0,  999.0,  999.0,  999.0,  999.0,   14.4,    0.7,    0.5,  999.0,   -6.2,    0.7,   -6.5,   13.9,   13.9,   55.1,   27.6,   55.3,   55.3,  999.0,  999.0,   55.3,   55.1,  999.0,  999.0,  999.0,  999.0,  999.0,  999.0,  999.0,  999.0,  999.0,  999.0,  999.0,  999.0,  999.0,  999.0
2005/08/20 22:10,  999.0,    0.8,    2.9,    2.2,    2.0,    2.5,    2.2,    1.9,    1.6,  999.0,    1.8,    2.0,    2.8,    3.0,    3.1,    3.7,    2.9,  999.0,  999.0,  999.0,  999.0,  999.0,  999.0,  999.0,  999.0,  999.0,   28.1,   28.3,   28.1,   21.0,   28.7,  999.0,   18.6,   28.1,  999.0,  999.0,  999.0,  999.0,  999.0,  999.0,  999.0,  999.0,   48.4,   48.4,   41.4,   41.5,   27.8,   37.0,   37.1,   55.4,  999.0,  999.0,  999.0,  999.0,  999.0,  999.0,  999.0,  999.0,  999.0,  999.0,  999.0,  999.0,  999.0
2005/08/20 22:20,  999.0,    0.8,    3.0,    2.6,    2.6,    2.9,    2.5,    2.4,    1.4,  999.0,  999.0,    1.5,    1.5,    1.8,    2.7,    2.9,    3.4,    3.8,  999.0,  999.0,  999.0,  999.0,  999.0,  999.0,  999.0,  999.0,  999.0,   16.1,  999.0,  999.0,   27.8,   27.8,   27.9,   19.1,   18.9,   13.9,    9.9,  999.0,    6.3,   -0.0,  999.0,   -0.0,    9.2,   18.5,   -0.0,   18.4,   38.8,   34.6,   41.4,   27.6,   34.5,   41.8,   55.4,  999.0,   28.1,   56.5,  999.0,  999.0,  999.0,  999.0,  999.0,  999.0,  999.0
2005/08/20 22:30,  999.0,    0.1,    2.3,    1.0,    1.1,    2.7,    1.8,   -0.0,  999.0,    2.9,    1.4,    1.8,    1.6,    2.1,    3.1,    3.4,    3.1,    3.9,    3.9,    4.2,  999.0,  999.0,  999.0,  999.0,  999.0,  999.0,  999.0,  999.0,  999.0,  999.0,  999.0,  999.0,  999.0,  999.0,  999.0,  999.0,  999.0,  999.0,   -0.0,   -0.1,   -0.0,   -0.0,   -0.1,   -0.0,   -0.1,    0.4,   -0.0,   -0.0,   -0.2,   -0.1,  999.0,  999.0,  999.0,  999.0,  999.0,  999.0,  999.0,  999.0,  999.0,  999.0,  999.0,  999.0,  999.0
2005/08/20 22:40,  999.0,   -0.7,    1.1,    1.1,    1.4,    1.6,    0.8,    0.3,    0.9,    2.0,    1.9,    1.5,    1.3,    2.2,    1.9,    2.9,    2.7,    2.6,    3.7,    3.6,  999.0,  999.0,  999.0,  999.0,  999.0,  999.0,  999.0,  999.0,  999.0,  999.0,  999.0,    0.0,    0.0,   -0.0,    0.1,    0.0,   -0.1,   -0.0,   -0.1,    0.0,    0.0,   -0.0,   -0.0,   -0.0,    0.0,   -0.0,   -0.1,   -0.1,   -0.3,    0.1,    0.1,  999.0,  999.0,  999.0,  999.0,  999.0,  999.0,  999.0,  999.0,  999.0,  999.0,  999.0,  999.0
2005/08/20 22:50,  999.0,   -1.1,    0.0,    0.3,    1.0,    0.1,   -1.2,  999.0,    1.4,    1.4,    2.0,    2.2,    1.9,    2.6,    2.6,    4.4,    4.9,    4.1,    4.3,    4.2,  999.0,  999.0,  999.0,  999.0,  999.0,  999.0,  999.0,  999.0,  999.0,  999.0,   -0.0,   -0.1,   -0.0,   -0.0,    0.0,    0.0,   -0.0,    0.0,   -0.1,    0.0,   -0.1,   -0.0,   -0.0,   -0.1,   -0.1,    0.2,   -0.1,   -0.1,    0.3,   -0.1,    0.2,  999.0,  999.0,  999.0,  999.0,  999.0,  999.0,  999.0,  999.0,  999.0,  999.0,  999.0,  999.0
2005/08/20 23:00,  999.0,   -0.7,   -0.4,   -0.1,   -0.2,    0.3,    0.8,    1.7,    3.1,    2.1,    3.0,    3.7,    2.6,    2.9,    3.5,    4.5,    4.2,    3.8,    3.2,    3.2,  999.0,  999.0,  999.0,  999.0,  999.0,  999.0,  999.0,  999.0,  999.0,  999.0,  999.0,  999.0,  999.0,    0.0,   -0.0,    0.0,    0.0,    0.0,    0.0,   -0.0,    0.0,    0.1,   -0.0,    0.0,   -0.0,    0.0,   -0.1,   -0.1,   -0.0,    0.1,    0.1,   -0.1,    0.0,  999.0,  999.0,  999.0,  999.0,  999.0,  999.0,  999.0,  999.0,  999.0,  999.0
2005/08/20 23:10,  999.0,   -2.4,   -0.4,   -0.1,   -0.2,   -0.1,    0.9,    1.3,    1.2,    2.4,    3.2,    3.9,    3.1,    3.3,    4.0,    3.8,    3.3,    3.7,    4.2,    4.4,    4.3,  999.0,  999.0,  999.0,  999.0,  999.0,  999.0,  999.0,  999.0,  999.0,  999.0,  999.0,  999.0,    0.1,  999.0,   -0.0,   13.8,   -0.1,   13.8,   13.8,   13.9,   13.7,   13.7,   13.9,   13.8,   13.8,   13.7,   18.5,   18.6,   18.3,   -0.1,  999.0,   27.7,  999.0,  999.0,  999.0,  999.0,  999.0,  999.0,  999.0,  999.0,  999.0,  999.0
2005/08/20 23:20,  999.0,   -2.0,   -2.3,   -0.5,   -2.1,   -2.2,   -0.7,    0.2,    0.5,    2.2,    2.1,    3.2,    2.8,    2.4,    2.8,    2.3,    2.5,    3.2,  999.0,  999.0,  999.0,  999.0,  999.0,  999.0,  999.0,  999.0,  999.0,  999.0,  999.0,  999.0,  999.0,   36.7,   41.3,   48.2,   48.2,   48.2,   55.1,   55.1,   55.1,   55.1,   49.7,   44.1,   49.7,   49.7,   55.2,   49.7,   48.4,   41.5,   55.2,   55.2,  999.0,  999.0,   55.3,  999.0,  999.0,  999.0,  999.0,  999.0,  999.0,  999.0,  999.0,  999.0,  999.0
2005/08/20 23:30,  999.0,   -1.3,   -0.7,   -1.2,   -1.1,   -1.0,    0.7,    1.4,    1.3,    2.3,    3.4,    3.9,    3.4,    2.8,    2.7,    2.4,    2.2,  999.0,  999.0,  999.0,  999.0,  999.0,  999.0,  999.0,  999.0,  999.0,  999.0,  999.0,  999.0,  999.0,   55.1,   55.1,   55.1,   55.2,   55.1,   55.2,   55.2,   55.2,   55.2,   55.2,   55.2,   55.3,   55.2,   55.3,   55.4,   55.5,   55.5,   55.2,   55.3,   55.2,   54.9,  999.0,  999.0,  999.0,  999.0,  999.0,  999.0,  999.0,  999.0,  999.0,  999.0,  999.0,  999.0
2005/08/20 23:40,  999.0,   -2.0,   -1.2,   -1.4,   -1.2,    0.3,    0.2,  999.0,    1.1,    1.8,    2.0,    1.9,    1.1,    1.4,    1.6,    1.1,    1.3,    1.8,    3.4,    4.0,    3.8,  999.0,  999.0,  999.0,  999.0,  999.0,  999.0,  999.0,  999.0,  999.0,  999.0,  999.0,  999.0,   55.1,   55.1,   55.2,   55.3,   55.1,   55.2,   55.2,   55.3,   55.2,   55.3,   55.2,   55.3,   55.2,   55.5,  999.0,   55.4,   55.3,   55.2,  999.0,  999.0,   54.8,  999.0,  999.0,  999.0,  999.0,  999.0,  999.0,  999.0,  999.0,  999.0
2005/08/20 23:50,  999.0,   -1.3,   -0.8,   -1.7,   -0.8,    0.5,    0.5,    1.3,    1.3,    2.4,    3.0,    2.7,    2.7,    2.0,    2.4,    1.9,    2.3,    3.1,    3.6,    4.0,    3.7,    3.7,    4.6,    4.5,    4.5,  999.0,    2.0,    2.7,    1.6,  999.0,  999.0,  999.0,  999.0,   55.2,   55.2,   55.2,   55.1,   55.3,   55.2,   55.2,   55.2,   55.2,   18.5,  -27.8,  -11.1,  -11.1,   18.3,  -27.7,   18.7,  999.0,  -27.8,  999.0,  999.0,  999.0,  999.0,  999.0,  999.0,  999.0,  999.0,  999.0,  999.0,  999.0,  999.0
